GFSGBSN_850_spd_057.txt.gz
Wind_Speed
14 14 14 13 14 15 16 17 17 14 15 19 22 27 30 27 27 27 22 21 21 21 20 19 20 21 19 9 21 12 15 17 10 12 12 10 11 7 4 3 2 5 4 8 16 7 10
14 14 14 16 16 17 16 17 18 20 21 19 20 25 28 29 28 29 29 24 22 22 20 18 20 20 15 9 10 8 15 18 15 14 14 13 7 11 6 4 3 5 8 15 9 9 10
15 15 16 17 16 16 18 19 19 21 22 22 24 21 23 27 28 28 29 27 25 22 20 17 19 19 18 30 16 11 11 13 16 14 12 14 14 6 1 5 5 4 5 7 4 9 6
16 15 16 17 16 17 18 19 19 19 19 20 20 22 21 25 26 27 28 28 27 22 20 17 17 16 16 16 19 19 22 19 19 16 12 12 10 10 6 6 5 5 1 2 2 5 4
18 18 19 19 16 17 19 19 18 18 19 19 19 20 21 19 22 28 26 26 25 24 22 17 13 11 18 15 13 4 9 25 22 16 15 11 8 8 5 4 4 2 5 2 7 9 2
21 20 20 20 19 19 20 21 21 20 19 19 19 20 23 22 22 24 27 25 19 15 13 8 8 7 20 16 9 10 11 8 17 14 16 10 8 4 3 3 6 5 4 2 5 3 2
23 22 23 21 22 19 19 19 18 18 19 19 19 21 21 22 21 22 25 23 6 1 4 12 10 12 16 12 16 9 7 7 15 14 6 7 4 10 15 8 5 1 2 4 9 10 7
25 24 24 23 23 23 19 19 19 18 20 19 20 21 21 20 21 20 18 11 3 12 14 23 30 35 39 31 18 22 4 10 11 6 6 3 13 8 6 5 5 5 6 10 9 11 8
25 24 24 23 22 23 22 20 20 19 19 20 20 20 20 19 20 20 14 6 3 18 7 16 27 30 39 24 23 37 18 8 4 8 9 8 5 14 9 5 5 8 7 8 8 8 3
25 24 24 25 22 22 22 21 20 19 19 20 21 18 17 17 18 11 7 5 7 18 5 8 8 12 16 15 9 37 26 13 6 15 7 8 15 5 5 9 8 8 10 12 8 4 4
26 25 25 23 24 23 21 20 21 21 20 21 19 16 15 16 13 16 5 11 14 2 5 4 6 3 12 19 3 12 35 20 10 7 8 10 8 11 14 16 8 10 5 10 11 5 3
26 25 24 25 24 23 24 23 22 22 21 19 18 16 14 18 22 19 16 15 9 4 9 5 5 6 7 11 3 5 18 16 9 5 3 14 2 6 8 8 11 9 3 1 2 3 2
27 27 27 28 27 26 26 26 25 23 22 20 18 18 18 20 20 12 11 9 4 7 6 5 0 6 5 6 4 4 8 12 9 7 8 8 6 4 0 3 3 4 3 3 2 1 6
30 29 28 29 27 27 26 24 23 22 21 21 19 19 21 23 17 15 10 3 13 4 8 6 6 2 5 6 5 6 7 10 7 4 4 10 5 11 6 13 5 6 9 5 6 4 5
30 29 29 29 28 27 27 24 23 22 21 21 17 20 26 25 18 12 3 8 4 4 5 9 8 4 3 1 2 3 5 7 11 7 6 6 6 4 5 6 9 4 5 7 6 3 2
31 30 30 29 28 27 27 25 26 25 24 21 21 23 29 24 18 15 4 11 5 2 6 7 3 4 5 6 4 3 7 4 7 18 7 4 2 4 6 4 5 6 5 2 2 5 4
33 32 31 29 29 28 26 27 27 26 23 21 23 12 15 26 19 14 9 7 10 24 15 4 4 5 5 4 5 3 1 7 4 4 14 10 3 5 4 5 8 2 4 3 2 5 6
33 33 33 32 31 29 31 30 29 27 24 23 23 6 17 23 9 6 10 7 13 13 8 3 4 3 3 6 3 2 3 4 12 8 5 9 5 13 19 8 3 4 7 8 5 4 2
34 35 34 34 34 35 33 31 28 28 27 23 12 8 26 32 10 12 4 11 12 6 8 3 3 5 4 2 3 3 6 8 16 9 0 2 3 10 8 4 5 6 5 7 3 3 8
36 36 37 37 38 37 35 32 31 30 33 30 9 5 10 24 9 15 8 9 13 19 7 3 3 3 1 3 3 5 5 5 23 7 8 5 4 7 12 7 4 4 8 7 10 6 4
40 41 41 41 38 37 37 36 34 33 37 31 15 6 9 7 15 9 15 8 15 12 16 2 5 13 5 2 3 4 9 12 5 5 3 4 2 7 12 10 13 8 7 8 7 10 12
42 45 44 41 38 38 37 36 35 36 36 37 10 6 9 3 21 20 15 15 14 16 6 9 13 7 5 11 8 6 12 5 6 3 4 1 2 7 6 8 8 14 16 20 14 7 8
45 43 42 40 40 39 37 36 37 38 38 32 26 16 8 10 13 16 20 18 14 11 13 28 9 7 8 14 15 20 20 17 12 11 4 3 3 4 4 12 9 10 12 17 8 6 7
42 41 40 39 38 38 37 37 38 41 46 39 25 17 11 5 13 13 15 22 23 18 19 7 19 9 11 16 19 22 20 20 15 9 9 4 4 3 1 6 4 7 6 12 15 14 8
36 36 36 35 33 33 34 35 38 40 45 49 35 23 20 9 9 17 17 19 25 28 18 20 22 20 10 16 3 4 3 4 8 9 9 6 4 3 3 4 8 18 6 4 8 19 13
29 30 30 27 28 31 32 33 36 38 41 45 44 33 24 6 16 13 18 21 9 10 12 15 27 22 6 1 2 4 3 4 4 1 8 5 4 4 3 3 6 5 10 20 6 14 6
32 33 33 32 32 31 31 30 31 32 35 46 36 46 18 11 17 25 17 17 18 12 5 8 12 14 24 2 2 3 5 4 3 4 4 5 2 6 3 3 7 7 10 19 5 13 5
31 32 33 33 33 33 35 35 34 34 34 34 32 31 41 12 9 18 31 15 19 24 5 8 5 4 3 5 3 3 3 5 5 4 5 6 5 4 4 4 8 7 9 4 15 13 8
32 28 27 29 32 36 37 36 36 37 36 34 23 34 25 16 8 24 27 27 33 36 30 17 10 7 11 4 3 1 2 1 4 3 2 2 5 5 7 6 7 4 3 12 32 38 12

GFSGBSN_850_spd_060.txt.gz
Wind_Speed
13 13 13 14 15 14 15 17 17 18 18 19 19 22 25 25 24 27 29 33 28 24 24 21 22 24 23 9 17 11 10 7 7 11 11 9 10 7 5 5 4 4 5 6 11 20 8
13 12 13 14 15 15 15 16 18 19 20 21 22 23 25 25 29 25 28 31 34 28 23 21 20 23 16 8 9 11 17 24 18 15 14 12 5 10 4 5 6 5 8 12 10 10 7
13 14 15 14 14 15 15 17 18 20 20 20 21 24 24 27 28 28 25 29 31 34 26 21 19 20 19 31 18 18 12 13 14 16 15 12 11 5 2 2 7 5 4 6 5 3 5
16 16 15 16 16 15 16 16 18 19 20 19 20 22 24 25 24 28 30 26 31 35 28 23 18 16 15 22 25 24 17 21 16 18 14 9 8 8 5 6 3 2 3 3 4 5 1
19 18 18 16 18 18 16 18 19 21 19 20 20 21 21 23 27 27 28 27 25 33 30 20 15 11 17 16 18 5 8 18 20 17 14 6 8 6 4 3 4 5 4 4 7 6 4
20 20 19 17 20 21 18 15 17 18 18 17 19 21 22 23 24 27 28 25 19 16 15 4 6 5 20 17 4 5 5 8 12 21 11 9 6 4 2 4 7 5 4 4 6 2 4
19 21 22 20 21 23 18 19 16 18 19 19 19 21 22 23 23 25 28 25 6 4 6 13 7 11 14 8 11 7 2 2 10 16 8 9 5 11 12 5 4 4 2 3 7 5 2
19 21 24 21 21 23 18 19 20 18 19 19 19 20 21 21 21 22 23 7 3 9 15 24 30 36 39 23 13 23 9 8 8 7 6 3 13 8 8 7 6 3 2 7 10 7 6
22 22 25 20 21 22 20 19 19 20 19 18 18 19 20 19 20 22 15 4 5 18 7 20 27 22 36 23 25 42 17 9 5 7 13 8 5 13 9 6 7 6 6 5 8 8 4
24 25 24 22 22 23 18 18 21 19 18 19 20 18 18 16 16 7 9 2 8 19 5 9 7 9 13 15 9 37 23 16 6 13 6 7 6 5 5 12 9 7 10 10 7 2 4
24 25 25 23 22 22 21 20 18 20 21 20 19 17 16 13 13 15 16 19 17 7 5 2 5 4 10 17 3 6 31 21 9 7 7 8 9 13 6 6 8 9 6 8 5 5 1
25 27 25 25 24 22 22 20 22 22 21 21 20 18 15 17 19 18 17 14 9 4 8 6 2 3 6 9 4 5 12 11 15 5 1 7 2 8 11 6 11 4 4 2 3 3 2
25 27 25 26 26 25 25 24 23 22 23 21 21 19 17 18 16 13 10 12 3 6 5 4 5 3 6 4 5 5 8 9 8 7 8 1 6 2 3 5 4 4 4 1 2 0 5
27 29 28 28 26 25 26 24 23 19 18 19 20 19 20 21 18 14 9 2 10 4 6 7 5 14 6 6 5 5 9 7 5 5 6 9 3 8 5 8 7 7 7 5 6 3 4
29 30 29 27 26 27 26 23 22 20 19 18 20 22 23 24 18 13 5 6 3 2 3 9 11 4 3 2 2 3 6 7 7 6 6 6 5 3 5 6 12 5 4 6 6 2 2
28 28 28 28 27 27 26 24 22 21 18 19 23 22 27 24 19 16 4 8 5 3 5 5 4 6 5 7 5 1 6 5 4 11 0 6 1 4 3 4 3 7 7 3 1 5 4
30 30 30 30 28 27 25 23 22 19 19 17 18 11 19 20 21 13 6 6 6 22 10 4 4 5 4 5 4 5 3 6 12 6 7 3 3 4 3 4 7 3 3 2 4 4 5
31 33 33 32 30 27 25 23 21 21 21 20 19 7 16 23 10 4 4 7 8 12 9 4 3 5 3 6 6 7 6 6 19 6 5 5 3 5 10 6 2 4 7 9 4 4 3
33 35 34 34 31 28 27 25 24 25 23 20 11 14 15 36 9 5 6 4 6 6 3 2 3 3 4 4 4 4 6 9 19 15 6 4 2 2 7 4 3 4 6 5 2 3 7
35 36 36 35 32 30 28 28 28 29 26 25 9 6 9 23 9 12 8 7 7 12 16 5 3 1 3 4 3 5 8 6 25 9 14 1 1 1 2 2 2 3 7 10 8 4 3
36 37 37 35 35 34 32 32 33 32 30 27 14 4 8 5 8 11 14 9 12 8 11 7 4 5 2 3 4 3 3 5 7 6 5 2 2 2 4 4 6 12 9 6 9 6 8
41 39 38 38 37 36 37 38 37 34 32 34 11 7 12 3 17 16 15 16 14 13 6 5 9 4 3 4 6 5 5 2 5 5 6 4 1 1 3 10 12 6 9 10 8 5 6
41 40 40 39 40 41 41 39 38 38 37 30 27 18 10 8 10 13 10 13 17 9 7 16 4 5 6 13 15 22 22 16 11 5 4 4 2 2 1 5 11 4 3 6 9 10 7
46 46 45 44 42 41 40 39 38 39 42 39 22 19 11 4 10 12 17 16 13 17 10 2 17 9 6 8 18 15 16 20 16 13 12 6 3 2 2 3 2 5 11 7 7 11 7
42 42 41 41 40 39 39 39 39 41 43 45 35 24 16 9 6 13 15 20 21 21 18 17 22 11 9 7 3 4 3 4 6 13 10 11 4 4 3 3 4 9 2 4 3 9 6
27 30 33 34 33 35 37 37 38 40 42 43 45 26 26 6 12 15 15 21 12 13 10 20 25 14 10 0 1 3 2 3 3 2 4 6 1 3 2 3 4 4 3 9 5 11 10
30 29 28 27 27 26 25 30 33 35 39 43 35 46 13 13 18 27 14 12 12 11 3 5 7 8 13 2 1 2 3 2 3 1 3 4 3 9 4 5 6 5 5 4 0 7 12
30 31 31 31 30 31 30 27 29 34 36 41 38 40 41 4 12 31 25 18 17 22 6 7 2 3 2 4 3 4 2 4 2 4 4 5 5 3 3 1 9 6 2 3 4 9 12
27 27 30 33 30 30 29 29 30 28 29 36 18 41 34 29 4 20 27 28 33 36 25 21 10 6 10 3 2 2 1 1 4 2 1 2 6 5 7 7 4 5 7 15 10 7 15

GFSGBSN_850_spd_063.txt.gz
Wind_Speed
10 12 10 9 11 13 14 14 14 15 17 18 18 20 21 23 26 26 26 28 29 25 25 26 28 26 22 12 17 14 5 7 11 17 16 15 18 9 7 6 8 6 8 7 16 12 11
11 12 13 12 11 12 14 15 16 16 17 18 19 20 21 22 23 24 27 27 28 27 23 25 24 27 17 7 8 8 11 21 17 15 17 16 11 14 7 6 7 6 10 11 10 13 6
15 14 14 14 14 15 14 16 16 16 16 16 18 20 21 22 23 24 27 29 28 26 26 20 24 26 20 28 16 27 19 16 15 20 21 20 13 9 9 3 8 2 6 7 9 5 4
15 18 15 16 15 15 14 17 17 18 18 17 18 19 20 22 23 25 26 29 30 27 25 20 20 22 15 23 25 32 23 22 14 18 20 14 14 11 5 3 2 3 1 5 1 5 2
17 17 18 17 16 15 17 18 16 14 16 17 17 18 21 23 25 26 27 30 26 25 21 13 15 11 15 16 18 14 15 22 18 18 17 6 13 7 6 4 2 0 6 6 6 4 3
20 19 18 18 19 17 19 18 17 17 14 15 17 19 21 23 24 27 28 29 18 10 10 1 7 5 13 13 10 6 5 8 10 22 13 9 6 4 4 10 11 8 5 4 5 1 2
21 20 19 21 20 16 19 19 16 19 16 16 16 18 20 22 24 25 27 27 7 4 11 10 11 7 13 9 18 9 6 3 8 15 10 7 8 15 19 14 5 7 5 4 5 5 3
22 19 18 22 20 17 18 17 17 17 16 16 15 17 18 21 21 22 19 5 6 9 15 27 30 32 35 22 14 15 9 5 8 10 9 5 19 14 8 8 11 6 6 9 10 2 8
22 22 22 23 21 17 18 19 17 15 16 16 14 16 18 19 19 16 11 2 4 19 7 21 21 19 33 37 32 38 18 6 6 9 18 19 5 15 14 8 11 11 13 7 10 6 3
24 23 22 20 20 18 18 18 14 15 14 14 14 16 16 16 14 6 7 7 14 17 5 7 5 6 11 14 11 49 26 20 6 14 8 14 8 13 12 16 14 15 12 8 7 4 4
23 24 23 22 23 21 17 19 17 15 15 15 15 17 15 12 14 14 13 13 11 6 6 1 3 1 9 15 6 5 32 24 19 7 7 9 10 12 13 11 14 11 9 11 7 6 3
26 27 23 24 22 20 21 21 18 17 17 16 15 16 16 14 13 14 13 9 4 2 7 6 1 1 6 11 6 3 14 13 17 4 3 9 4 10 19 7 18 8 5 4 3 2 5
24 22 20 23 22 23 22 23 21 19 17 16 15 15 16 14 11 9 11 8 2 5 6 5 6 5 6 6 6 6 10 16 9 12 12 6 8 2 5 6 7 5 8 3 4 5 5
25 25 25 26 25 24 22 20 19 19 17 15 15 17 18 17 14 12 5 1 7 4 6 8 8 12 4 3 6 8 9 12 11 3 9 10 6 11 5 6 9 18 13 6 8 6 4
29 27 24 26 25 24 20 21 22 19 16 15 16 20 21 17 14 12 8 4 3 5 4 9 15 3 4 5 4 3 7 3 9 8 7 9 9 3 5 5 8 6 10 6 5 2 1
29 28 28 28 24 23 22 22 22 19 15 12 16 19 26 18 14 16 7 9 6 3 5 5 3 6 6 8 10 5 5 8 4 9 3 6 3 5 11 3 3 5 9 5 0 7 8
30 29 29 28 25 23 23 23 22 18 14 11 13 7 10 9 15 12 5 6 5 18 9 3 3 5 5 5 5 6 5 5 11 8 6 3 0 1 6 7 12 7 8 2 4 3 8
31 30 29 28 30 27 26 24 20 16 13 14 11 4 8 12 10 4 3 7 7 5 3 4 2 4 3 5 5 6 7 6 13 13 3 3 2 3 4 2 4 4 8 10 5 5 1
31 30 28 29 28 27 26 24 21 18 16 14 8 12 14 15 6 10 3 5 5 5 4 0 1 2 2 3 4 4 5 8 18 10 6 5 3 2 4 3 3 5 5 4 2 1 12
36 34 33 31 30 29 27 25 22 20 20 18 8 3 11 19 16 12 8 7 6 7 5 5 3 2 3 3 2 4 4 6 14 7 15 3 2 1 4 3 3 2 3 9 11 4 5
32 32 33 32 32 31 29 27 25 24 22 19 11 6 7 4 12 11 14 12 13 8 8 4 4 11 6 5 4 5 6 5 9 12 6 5 2 4 5 4 3 3 8 9 9 11 10
34 34 33 34 33 33 33 30 28 28 26 25 8 7 9 8 6 16 12 13 14 11 8 4 7 2 7 7 6 4 5 4 3 7 7 8 1 1 2 4 2 6 8 6 6 4 7
38 38 37 36 35 36 35 34 32 32 29 22 23 23 11 9 6 7 5 12 15 11 6 14 5 6 9 11 10 14 15 14 12 7 5 4 1 1 2 4 5 1 2 1 1 1 3
41 42 42 41 39 38 37 36 36 37 37 38 16 18 12 9 9 11 10 13 13 17 12 9 17 12 3 4 19 15 12 14 13 12 11 5 2 2 1 4 2 2 1 4 3 1 4
36 33 36 40 42 42 42 42 42 43 41 41 34 19 14 7 13 12 14 14 16 10 17 16 12 3 2 3 3 5 2 2 7 11 14 12 4 2 2 5 4 8 2 3 3 3 9
30 29 28 28 36 40 41 40 39 39 39 39 40 37 11 8 16 21 12 20 11 9 6 12 12 7 9 3 2 3 2 2 1 3 6 11 9 3 3 3 6 4 2 3 6 2 3
28 27 27 26 24 29 33 36 37 38 39 40 31 44 33 7 13 28 13 8 13 10 3 5 7 9 13 4 3 3 2 2 2 1 3 5 4 10 2 4 4 5 4 5 3 3 12
31 29 29 28 28 25 25 29 33 33 40 40 41 32 43 5 13 27 28 21 18 20 6 9 6 2 4 5 3 3 3 3 1 2 3 6 7 4 4 4 5 2 2 3 7 10 12
28 28 27 26 27 28 27 25 24 23 32 37 28 40 35 28 4 24 28 26 32 32 21 21 8 6 8 3 4 3 3 1 4 2 1 2 4 3 6 4 1 2 2 5 8 10 11

GFSGBSN_850_spd_066.txt.gz
Wind_Speed
11 10 10 10 6 8 10 10 11 14 14 14 15 16 17 18 20 21 22 23 25 27 25 23 23 22 22 8 18 22 17 9 5 18 17 20 21 22 17 14 13 19 18 15 18 16 15
11 13 12 12 10 11 13 11 12 13 14 15 14 16 18 19 20 22 24 25 25 24 25 25 23 21 13 16 14 12 10 9 8 15 14 18 14 19 11 15 16 7 21 20 17 18 17
13 13 15 13 12 14 12 13 14 15 17 17 17 16 16 19 21 23 25 27 27 26 24 24 24 18 16 26 21 26 29 25 16 16 19 18 17 12 10 11 20 15 15 15 17 18 18
14 13 12 17 12 14 13 15 14 15 15 14 17 16 17 18 21 23 26 26 27 26 25 20 18 15 13 18 21 27 29 27 22 18 17 15 16 16 11 6 5 14 14 15 12 11 9
16 18 17 14 18 17 16 14 18 13 15 16 15 17 18 18 21 24 26 27 25 21 17 15 9 9 14 14 17 16 17 19 13 18 14 10 12 19 15 13 12 13 15 16 12 8 4
19 18 17 17 16 19 20 17 17 14 15 18 17 17 16 18 21 24 25 24 14 9 8 5 3 6 17 14 9 7 8 14 8 15 14 16 14 12 15 15 18 17 15 15 14 7 10
18 20 20 15 15 20 19 17 16 13 15 16 18 17 16 18 21 21 24 15 8 3 8 10 13 16 21 9 7 7 14 11 7 18 18 24 15 22 25 23 19 13 14 15 7 4 5
19 21 19 16 18 20 22 13 17 17 12 15 17 16 16 17 19 17 13 7 5 8 14 27 33 31 33 19 9 9 13 9 13 15 20 13 22 21 17 19 19 17 16 14 8 5 11
22 20 21 22 21 22 20 14 17 17 12 16 16 15 14 16 16 6 9 5 5 15 9 18 12 15 16 18 21 12 19 10 12 15 19 24 7 20 16 17 19 21 19 16 13 3 11
25 22 22 21 19 18 19 18 16 13 15 16 14 13 14 15 5 5 6 7 11 12 5 4 3 3 3 9 9 33 15 15 12 14 17 17 25 8 20 24 19 20 20 17 14 8 9
25 23 22 22 21 20 22 18 16 16 16 16 14 12 11 10 9 5 6 10 9 3 6 4 2 3 4 9 5 8 30 21 23 18 7 13 12 22 18 21 19 20 10 12 16 11 11
27 26 26 26 25 22 21 18 18 19 18 17 14 13 12 9 7 5 5 8 3 3 6 3 2 2 4 12 6 3 11 29 22 18 19 25 5 14 22 14 16 7 7 8 9 10 12
28 28 26 21 19 19 20 20 20 20 18 17 15 13 11 8 5 2 4 3 4 6 4 1 3 8 15 15 8 9 11 21 15 19 20 25 21 12 15 21 15 15 12 6 8 8 11
30 28 24 25 24 21 23 21 22 18 17 17 16 16 13 11 8 8 3 3 9 2 9 9 8 16 6 10 6 13 12 15 23 18 8 15 14 20 13 16 14 24 21 7 10 10 8
29 29 28 26 26 20 20 20 19 18 18 16 16 15 14 12 11 10 7 8 4 9 3 7 13 7 2 8 7 6 10 7 15 23 17 18 18 13 13 12 15 16 17 14 6 2 4
29 29 28 28 27 29 26 23 19 18 17 14 13 11 15 13 13 14 5 9 10 9 4 5 6 3 5 8 7 5 4 6 5 19 16 5 11 16 21 12 16 11 12 11 10 13 10
31 30 27 25 28 25 24 22 19 19 16 12 10 6 6 10 16 11 6 10 12 19 9 4 3 5 5 6 8 3 1 6 16 11 15 9 8 6 13 16 19 13 10 9 8 13 11
29 30 27 29 27 23 30 22 20 19 15 14 8 4 8 14 10 7 9 13 7 15 17 16 7 7 8 7 6 0 1 4 17 22 9 14 5 6 16 5 16 18 20 18 9 11 8
31 30 31 29 29 25 24 26 22 17 18 12 7 12 10 14 7 11 7 14 13 12 13 9 10 6 4 5 4 3 4 9 14 15 12 4 7 10 9 7 4 11 12 12 17 13 12
32 31 24 25 27 24 22 26 23 18 21 19 6 3 14 14 16 11 16 16 15 16 17 15 7 6 8 10 7 7 6 2 11 9 23 11 5 11 9 5 1 7 10 13 12 11 13
31 28 26 27 26 26 25 29 25 21 23 21 10 6 9 5 11 15 12 7 15 15 16 14 11 16 15 11 12 13 14 13 5 4 4 8 0 1 2 0 1 1 3 9 13 13 13
31 30 29 29 27 26 26 28 25 23 24 27 9 6 6 14 8 15 16 14 20 20 13 12 13 9 12 18 17 16 7 7 3 6 3 5 3 4 1 1 5 7 7 6 10 9 7
32 32 32 33 32 29 29 28 29 27 28 22 18 23 6 14 13 12 10 15 14 14 14 17 11 7 12 12 8 12 13 13 13 7 5 3 2 3 2 2 4 7 13 5 5 4 4
38 37 37 37 36 35 34 33 33 32 34 31 20 19 10 11 11 14 13 12 17 16 19 12 15 11 3 3 10 13 15 17 14 14 12 4 2 4 2 6 3 3 4 0 7 8 6
32 32 32 33 35 38 39 37 36 35 37 37 34 22 15 12 20 20 20 14 16 21 19 14 11 9 3 4 5 5 5 4 9 17 14 13 5 3 4 6 7 5 4 2 2 5 6
27 30 28 28 31 31 35 40 40 39 40 40 41 38 22 9 18 24 17 21 13 12 9 8 8 7 4 3 3 4 4 1 4 6 9 12 11 6 2 4 6 3 6 2 2 4 7
28 26 25 24 27 29 29 34 41 42 42 41 36 42 34 19 17 18 18 17 18 11 6 6 8 7 10 4 5 4 4 1 3 4 6 8 8 12 9 6 4 2 1 1 6 2 11
31 29 27 25 26 26 25 25 37 43 45 46 44 33 43 16 25 10 21 24 20 19 5 9 5 5 4 6 4 4 3 4 3 3 7 8 9 7 10 7 6 5 2 4 7 7 12
31 28 28 27 25 27 26 24 29 34 39 38 30 40 32 27 9 23 28 23 26 24 20 16 5 3 9 5 5 3 4 1 4 3 5 4 3 3 7 7 5 7 6 6 7 6 10

GFSGBSN_850_spd_069.txt.gz
Wind_Speed
13 13 13 12 12 10 13 14 14 12 13 14 16 16 16 17 19 20 22 23 23 22 22 23 23 22 22 10 26 19 22 14 13 8 18 22 28 27 24 22 25 22 24 25 22 24 21
11 13 15 16 14 12 14 16 13 14 13 13 17 17 18 18 20 22 23 25 25 24 23 24 23 20 12 18 14 17 12 6 5 7 15 21 21 24 24 25 21 23 22 25 28 23 22
14 12 11 14 16 14 15 15 17 17 15 12 13 16 17 19 20 23 25 26 26 25 24 23 21 18 13 28 15 17 19 19 12 10 18 18 22 16 25 18 23 23 21 19 19 26 22
16 17 16 16 14 16 17 17 17 19 19 14 14 16 18 20 21 24 26 26 25 24 22 20 17 9 12 16 17 22 22 21 15 14 18 20 19 23 23 16 17 16 21 19 21 23 22
17 19 20 19 20 16 18 20 24 21 18 16 17 17 18 20 21 23 26 25 23 20 17 16 5 8 13 7 9 12 18 18 15 10 17 18 20 23 23 17 16 20 16 22 21 11 10
19 17 17 19 20 20 19 19 23 18 18 16 16 18 18 20 20 22 24 19 14 11 10 6 9 8 10 7 7 6 7 5 12 6 15 20 17 17 19 17 18 19 20 19 19 12 13
19 18 19 19 20 12 20 20 24 15 17 18 16 17 18 19 19 19 21 21 5 6 9 15 15 15 27 15 12 11 10 10 6 3 16 25 17 22 25 24 22 22 18 16 11 12 10
19 18 17 16 17 19 20 21 23 17 17 16 13 18 17 18 16 13 12 9 6 8 17 21 26 27 29 25 27 15 7 12 7 16 16 22 25 23 23 23 25 25 23 18 17 6 8
21 22 23 23 19 20 24 23 21 20 19 12 14 17 16 15 13 5 7 4 9 13 10 13 5 8 7 9 27 25 13 9 10 13 19 24 22 23 22 22 26 23 23 20 19 7 10
22 23 23 21 22 21 20 20 20 21 16 13 15 15 14 12 8 4 8 7 11 10 6 7 2 1 2 3 5 20 22 15 7 10 13 18 29 11 22 27 22 22 20 20 18 14 13
24 24 25 23 22 21 20 21 21 22 17 16 15 14 13 10 10 8 7 10 10 7 6 4 6 1 1 6 10 4 21 19 14 8 5 9 17 20 23 24 23 21 17 16 18 16 16
25 25 26 25 26 26 27 25 22 20 19 19 18 15 14 7 9 9 8 8 6 6 7 3 3 1 7 10 8 2 20 18 8 9 19 23 33 16 19 23 17 17 18 17 11 14 15
26 26 28 28 27 23 20 18 22 20 18 19 20 17 13 10 8 4 5 8 6 7 3 3 1 6 13 17 5 12 11 19 10 4 14 19 23 23 27 18 21 25 14 9 11 13 14
27 28 29 27 25 25 26 23 20 22 17 20 16 18 14 12 12 10 8 8 10 8 10 3 8 12 17 10 6 13 11 14 18 12 7 9 13 20 17 19 18 20 21 12 11 11 13
25 26 29 27 24 27 24 24 21 17 17 19 17 16 15 15 13 13 8 11 7 10 11 4 11 15 14 3 4 7 15 13 11 19 9 8 12 16 20 13 17 21 21 20 14 6 9
27 27 27 27 29 28 26 29 25 20 19 14 12 14 18 14 16 16 7 15 14 9 5 5 11 7 11 5 6 5 6 3 4 5 16 16 18 13 18 16 18 20 15 20 15 9 8
26 26 27 26 25 29 23 20 26 27 21 13 12 7 8 16 18 14 11 17 15 18 11 9 12 12 11 11 7 4 1 4 10 11 17 22 17 8 22 15 21 17 18 14 14 13 8
27 28 27 26 24 23 23 24 24 19 15 12 14 5 9 16 14 12 10 18 21 11 15 17 16 15 15 15 11 7 1 4 6 14 12 15 6 13 15 25 23 21 19 17 10 16 15
28 27 27 26 25 26 24 23 23 25 18 13 12 16 9 17 9 13 16 17 21 15 17 17 18 20 16 16 8 10 4 4 4 13 10 9 9 13 6 9 18 24 23 20 14 10 9
27 28 27 26 26 32 24 25 25 22 20 18 7 4 17 17 19 16 17 16 18 22 20 18 16 16 16 14 16 8 5 7 7 4 20 15 11 13 13 7 12 17 18 19 18 12 15
29 28 27 25 23 19 19 22 21 21 22 19 12 7 8 8 15 17 17 8 20 18 16 19 18 19 14 13 17 18 16 14 6 6 5 10 6 10 15 8 5 8 10 14 16 15 13
30 29 27 26 24 22 22 24 24 25 24 25 10 9 14 19 16 16 19 19 16 15 15 15 17 18 17 18 17 18 12 8 8 3 0 6 3 10 13 10 5 8 10 11 13 10 10
32 31 29 28 26 24 23 24 24 27 28 24 23 20 15 9 15 11 11 19 17 18 20 18 22 15 15 12 14 16 14 12 11 8 3 4 3 6 2 1 4 8 12 8 10 14 13
33 33 32 31 31 30 28 26 28 29 30 28 20 20 14 10 12 14 17 15 16 13 16 13 22 12 3 4 10 14 16 17 16 16 13 5 7 3 4 6 5 5 2 16 11 3 4
31 32 30 30 30 32 34 33 32 33 30 33 26 22 17 11 18 19 16 13 10 11 11 20 16 3 2 7 6 9 10 10 15 18 16 14 6 3 2 3 6 9 3 4 13 8 6
28 26 25 23 28 31 32 35 37 37 36 33 32 30 18 4 15 22 17 21 12 10 10 16 5 4 1 3 5 6 7 8 8 7 18 16 12 7 6 3 4 4 12 7 9 5 7
28 26 25 24 23 22 31 35 38 41 39 37 32 34 28 13 26 9 13 11 17 16 7 10 9 6 6 3 5 6 6 4 5 11 13 12 11 13 9 5 4 10 3 1 10 4 7
30 28 28 28 25 25 24 32 31 38 44 42 42 33 37 15 28 22 18 17 21 12 5 9 6 4 4 5 4 4 4 5 3 4 11 11 9 7 10 9 11 5 3 4 6 8 9
32 31 30 28 26 26 26 28 29 36 37 46 36 36 30 23 14 13 31 23 17 12 8 8 3 2 6 4 5 2 4 1 5 4 10 6 7 5 9 7 8 13 17 11 9 9 11

GFSGBSN_850_spd_072.txt.gz
Wind_Speed
11 11 14 14 15 13 13 13 16 17 17 16 17 17 19 19 19 20 21 21 21 21 21 22 23 24 22 7 26 17 26 18 14 8 9 15 22 27 24 24 28 27 25 30 30 30 25
15 13 11 12 15 15 15 16 15 17 20 20 18 15 16 21 22 22 22 23 23 22 21 21 22 21 14 17 9 11 12 12 10 11 12 15 22 24 30 28 24 30 29 29 30 27 26
14 15 15 15 14 13 16 18 18 17 21 23 20 19 19 20 23 24 24 24 24 23 22 22 21 17 15 34 15 19 17 17 14 14 14 14 18 24 23 24 31 32 26 22 22 23 22
13 14 16 17 19 19 18 19 21 21 23 25 23 20 21 22 24 25 24 25 23 21 21 19 16 9 13 16 15 19 17 20 21 17 17 17 18 20 21 28 26 24 22 21 22 22 23
16 18 17 16 17 19 19 21 20 23 25 22 22 21 22 23 24 25 25 25 18 16 16 15 9 6 12 7 8 8 9 12 14 17 14 12 16 15 18 17 16 17 19 23 24 23 21
16 18 19 18 16 19 22 18 21 23 24 17 22 22 20 23 23 22 24 23 12 15 9 7 10 9 18 9 5 10 8 5 9 13 12 12 12 12 17 15 17 19 21 21 22 20 24
18 17 17 14 17 19 16 17 21 22 25 20 21 20 19 23 22 18 18 23 9 2 9 17 12 16 31 21 23 16 13 9 9 9 14 9 12 18 23 21 22 20 22 23 21 20 18
19 20 19 18 19 19 17 20 23 25 25 20 22 17 20 21 18 12 8 10 7 10 16 25 29 29 26 25 26 25 11 7 13 13 14 9 21 19 21 21 22 22 24 25 23 12 8
20 20 21 19 21 21 22 19 18 20 20 21 20 18 19 19 13 5 8 11 10 13 8 18 10 12 9 8 15 19 20 14 14 13 13 19 16 17 22 28 24 22 23 22 24 20 18
19 20 21 22 22 21 22 21 21 19 20 21 18 18 18 17 11 7 10 4 10 12 5 7 10 6 7 3 6 4 18 16 2 8 10 8 15 18 18 29 23 22 21 25 24 18 14
19 20 22 23 23 22 23 23 20 20 20 21 18 18 16 13 15 12 12 11 10 8 5 11 11 7 5 7 7 6 11 17 11 7 5 5 10 21 24 25 21 23 15 23 21 18 17
21 19 19 22 20 21 23 24 28 29 25 21 18 18 18 13 14 10 13 9 7 4 8 9 10 9 11 17 13 9 12 9 3 10 14 15 15 9 13 22 20 17 18 23 21 15 16
21 26 26 26 27 28 25 25 21 21 22 22 17 19 21 14 18 11 3 9 5 6 3 9 7 3 6 10 12 12 11 14 8 4 10 14 25 18 20 20 16 22 10 8 8 13 12
20 20 21 21 23 23 22 23 24 25 24 18 18 18 19 18 15 13 8 5 10 8 15 0 5 7 13 15 13 5 11 12 16 10 8 5 4 18 11 19 11 17 20 9 7 8 12
22 23 23 23 24 23 22 24 21 24 17 16 16 18 21 17 15 15 12 10 6 15 16 14 9 7 16 15 5 9 16 13 9 15 7 4 5 6 17 10 8 12 19 25 13 9 6
21 20 21 22 24 23 22 24 25 23 23 14 15 18 25 18 17 19 10 17 18 14 10 6 6 7 12 12 3 1 1 2 3 4 12 4 8 12 17 15 19 22 19 15 10 7 6
22 22 21 22 22 23 22 23 23 26 19 18 15 10 15 18 21 15 11 18 18 27 19 8 9 14 16 11 11 7 2 6 4 3 5 7 7 3 7 7 18 11 15 14 12 13 6
22 24 24 23 24 22 22 23 20 19 16 17 20 6 12 25 13 5 10 18 25 18 13 13 12 13 15 16 12 10 9 6 7 5 3 5 5 9 19 16 20 17 20 18 9 19 12
26 25 24 23 23 23 24 23 22 18 20 20 9 18 19 16 8 13 14 22 23 21 19 13 16 15 16 16 15 9 14 10 7 4 5 6 5 6 9 10 16 16 19 19 12 10 8
25 24 23 24 23 22 22 21 23 22 20 20 4 4 19 16 18 14 18 18 19 26 20 19 16 17 13 16 17 7 5 7 8 4 8 5 6 9 10 9 8 14 22 22 17 4 7
27 27 26 24 24 22 22 20 19 22 21 18 6 6 6 8 12 16 18 7 16 18 19 19 15 19 16 15 14 16 18 11 11 9 3 3 5 8 13 16 16 14 16 21 22 19 15
27 27 26 26 25 23 21 21 19 14 17 21 5 6 14 9 14 16 17 18 19 14 17 16 16 18 19 17 14 14 15 10 6 8 3 3 4 11 10 15 15 16 12 14 11 15 15
27 27 28 29 28 25 22 22 22 20 22 19 19 16 13 9 10 11 10 19 19 18 15 22 10 16 12 12 7 8 16 4 13 7 5 3 1 4 4 13 7 9 12 10 10 10 8
30 30 30 29 29 26 27 24 23 22 28 26 14 16 11 12 12 12 15 12 12 17 17 17 15 12 12 8 6 14 14 17 16 14 12 7 5 2 4 10 4 9 12 12 4 8 8
30 30 29 29 30 30 30 29 27 26 27 29 27 16 10 10 16 17 17 8 17 12 10 14 17 4 6 4 3 6 10 14 19 17 16 12 6 2 3 4 6 4 2 9 12 5 5
29 26 26 26 25 24 25 30 32 30 29 29 28 26 17 5 12 20 15 18 10 10 10 14 1 6 6 3 1 8 7 8 9 8 20 16 11 6 4 4 1 3 6 17 9 3 6
28 28 27 25 23 21 19 28 31 32 33 33 26 26 21 13 26 18 12 9 14 9 8 4 6 5 5 2 2 4 9 9 7 8 19 14 12 11 7 4 5 6 14 21 2 3 6
32 31 27 27 25 22 22 22 31 32 36 36 37 26 28 13 24 20 19 17 17 8 4 4 6 3 3 2 3 6 5 3 5 7 15 12 10 7 9 7 6 4 8 2 8 10 9
32 32 29 29 28 27 24 24 24 35 39 37 31 31 25 21 11 8 20 27 25 23 4 3 4 4 2 5 4 3 4 2 6 2 14 8 8 5 8 6 13 22 20 18 19 17 16

GFSGBSN_850_spd_075.txt.gz
Wind_Speed
11 11 11 10 12 13 13 14 15 15 16 17 19 18 18 20 19 20 20 20 20 20 20 21 22 23 23 9 24 10 11 14 12 11 7 7 13 17 9 9 18 17 18 29 33 34 38
9 12 13 15 14 12 13 16 17 19 19 22 24 23 21 22 23 23 21 21 21 21 20 21 23 22 15 11 5 3 10 8 10 11 12 12 12 20 20 18 16 22 24 26 30 30 28
14 10 12 15 14 18 19 19 19 20 22 24 26 26 25 23 24 25 24 23 22 20 19 20 20 17 16 35 18 17 14 14 11 13 17 14 12 12 16 11 24 26 17 17 18 23 14
12 14 15 15 16 18 16 18 21 22 22 25 28 23 23 24 25 25 24 25 24 20 15 14 15 10 14 14 8 8 7 11 15 17 18 20 15 17 9 14 16 10 13 15 13 11 19
16 17 16 17 19 16 18 19 20 19 23 24 24 24 25 26 25 25 23 25 22 14 13 13 14 8 13 6 10 3 3 7 10 9 14 13 15 14 10 4 5 6 9 12 17 14 16
13 15 16 16 18 15 19 20 17 19 21 25 27 24 26 23 25 21 19 20 11 9 5 6 4 7 13 12 3 7 5 9 6 8 9 6 7 4 2 2 8 4 7 9 14 22 17
15 16 19 18 17 17 17 16 18 21 23 26 24 24 25 23 23 16 16 17 13 3 11 11 11 15 22 15 22 18 10 9 4 7 4 12 5 8 8 10 14 13 15 19 18 17 16
19 20 19 20 19 18 19 20 20 20 22 21 22 26 22 22 19 8 10 11 13 15 15 26 33 41 43 36 21 20 16 8 4 6 6 4 6 7 11 15 14 13 18 23 23 20 16
19 19 18 17 20 19 20 21 22 22 22 21 21 23 21 21 14 2 9 16 15 16 6 25 17 17 19 16 19 19 13 16 6 5 7 10 7 5 12 18 15 14 17 19 19 20 24
14 15 18 18 19 19 20 20 21 21 21 20 19 23 19 21 11 6 5 11 11 15 4 8 7 7 14 7 7 17 14 17 3 0 3 3 4 10 15 17 14 11 11 23 17 12 9
19 19 18 19 20 20 19 18 20 21 23 24 23 20 17 15 17 11 14 15 15 8 5 8 8 13 12 11 4 7 12 20 8 7 5 6 4 5 14 17 16 9 15 22 7 9 13
20 20 23 23 22 21 23 24 24 23 24 24 24 20 18 19 16 9 14 11 6 1 8 8 11 11 10 14 6 11 10 8 3 5 9 11 14 5 2 11 8 8 15 6 7 4 8
20 21 19 17 19 21 21 21 20 20 21 19 19 18 17 15 18 10 8 12 2 6 10 10 8 16 17 7 12 10 10 7 5 3 5 6 13 12 8 7 8 9 9 1 3 4 6
19 18 19 19 20 21 21 21 20 19 21 22 22 19 20 19 15 7 13 3 9 9 13 9 6 5 3 4 10 8 12 6 7 5 2 2 5 5 11 11 5 12 6 4 5 3 3
19 21 19 17 18 20 21 21 19 20 20 21 20 19 23 15 9 9 9 6 5 8 7 13 11 6 1 11 10 5 10 4 4 11 6 3 3 2 5 9 14 5 8 5 8 5 4
17 18 18 19 19 19 19 20 18 18 18 20 21 20 26 13 10 14 6 14 12 11 17 17 7 5 3 6 4 3 4 4 3 7 3 0 5 5 1 11 11 8 4 3 3 3 3
20 19 19 19 20 20 19 19 18 17 16 16 15 9 18 6 17 15 10 10 11 28 27 7 12 9 9 10 9 6 6 2 1 5 6 5 2 1 3 6 6 7 4 6 2 4 3
18 20 21 21 20 20 19 18 16 15 14 14 15 4 6 10 12 5 14 7 12 26 35 17 11 8 8 9 8 7 4 5 6 4 6 1 3 5 11 11 14 13 11 11 4 4 5
20 22 22 21 21 20 20 19 18 16 13 15 6 14 26 16 8 12 8 15 23 20 20 12 10 9 8 7 4 6 7 9 11 4 4 3 3 4 6 5 9 4 12 15 9 4 6
22 23 22 21 21 20 18 18 17 15 14 16 4 3 11 17 18 7 12 15 17 24 23 23 16 15 11 8 6 5 2 5 5 4 6 1 4 6 6 11 3 4 8 16 17 3 5
25 25 25 25 23 21 19 17 17 16 14 15 7 5 8 3 6 12 10 1 10 17 20 22 16 12 12 8 7 5 5 8 5 10 5 3 4 6 11 14 11 12 14 15 22 17 5
24 22 23 24 23 21 20 18 16 15 14 17 8 3 5 5 9 5 9 7 15 15 8 9 11 8 7 7 7 9 1 4 3 3 4 4 3 3 8 9 7 15 17 15 17 20 17
24 24 24 24 24 24 24 21 17 15 15 10 15 19 10 5 5 5 3 4 10 10 11 9 5 9 6 9 11 5 4 6 6 4 5 3 2 3 3 7 12 8 7 12 10 9 14
25 24 25 25 24 24 23 23 20 18 21 21 11 10 5 4 5 7 16 8 10 14 9 10 4 14 3 10 11 10 14 13 8 8 10 5 4 1 4 6 4 4 3 3 8 5 5
24 26 27 27 24 23 25 25 24 22 22 26 24 18 5 4 7 10 14 11 13 13 10 8 10 4 1 6 2 4 4 4 8 12 12 11 4 1 2 5 9 4 6 3 6 8 12
29 28 25 23 21 21 21 21 27 25 24 26 25 23 18 3 4 13 10 12 5 6 5 8 2 2 4 3 3 2 3 5 4 4 18 9 7 4 2 4 3 4 7 5 3 4 8
29 26 24 23 22 20 19 17 20 27 27 28 26 24 16 11 17 18 4 6 10 8 4 9 1 0 2 3 2 4 4 4 5 5 4 10 8 10 4 2 7 4 7 3 4 4 10
28 28 26 26 24 21 20 18 15 26 27 30 30 23 25 11 19 17 13 16 14 11 4 12 3 3 2 1 2 3 3 4 4 6 7 9 7 5 3 4 6 15 8 3 10 15 20
26 26 27 26 26 26 23 21 18 18 27 29 32 28 23 18 9 6 15 23 23 20 14 4 5 4 3 2 2 3 3 3 2 3 1 4 6 5 6 3 12 22 21 23 23 23 22

GFSGBSN_850_spd_078.txt.gz
Wind_Speed
6 8 9 11 11 10 10 12 15 16 16 18 21 24 24 23 22 22 21 20 20 20 20 20 22 24 23 11 21 14 15 8 5 7 6 5 7 7 5 5 11 10 16 24 27 30 33
10 9 8 11 12 11 13 16 17 19 19 20 23 25 26 24 24 24 23 22 20 20 19 20 20 20 17 9 5 4 10 10 6 8 10 7 7 9 11 8 9 7 16 22 25 26 30
8 10 11 12 12 12 15 16 16 18 20 22 23 26 27 26 26 26 24 24 22 20 19 17 16 14 17 34 15 17 18 17 14 12 13 11 10 7 9 5 7 8 12 16 17 19 13
10 11 12 13 15 15 14 15 16 19 16 19 22 25 27 28 28 26 24 24 23 20 19 15 14 11 15 13 6 5 8 15 12 14 18 18 13 15 10 7 7 5 5 8 8 11 15
12 12 11 12 13 14 13 15 17 16 18 20 23 26 27 27 27 25 23 22 19 18 16 13 13 11 15 7 7 1 3 3 2 5 9 9 14 9 6 1 4 4 13 12 9 6 8
11 12 12 15 14 15 14 14 14 16 18 21 25 23 25 29 25 21 19 17 10 7 2 5 6 7 15 6 6 2 1 5 11 5 5 7 6 2 2 3 11 5 7 7 9 2 7
13 15 17 18 15 16 15 16 17 18 19 21 22 24 25 27 22 17 15 12 14 4 14 12 9 12 14 9 14 14 5 12 9 4 3 4 2 7 7 8 6 8 12 14 11 11 6
15 16 17 16 13 15 17 17 18 20 19 21 21 22 25 28 19 9 10 12 17 19 19 26 32 39 44 32 17 24 19 5 7 5 3 2 6 10 8 6 8 12 15 17 12 12 13
15 15 15 15 14 14 15 17 19 18 19 17 19 22 24 25 15 6 9 13 15 12 8 21 26 19 26 30 23 35 17 10 4 4 5 8 5 5 5 4 9 13 12 8 8 15 21
15 16 16 16 16 17 18 18 17 16 19 20 20 22 23 24 14 10 4 12 8 11 4 8 8 10 13 8 8 28 16 10 6 7 5 5 3 1 2 5 9 14 8 8 10 12 9
15 17 18 18 18 19 18 19 20 21 22 21 22 22 19 14 18 18 15 13 7 3 4 2 6 6 17 14 7 9 17 18 9 6 6 5 2 2 4 6 8 11 7 8 8 10 5
14 16 17 18 15 16 19 21 21 19 18 19 17 16 15 13 15 15 15 13 5 0 9 6 5 8 9 9 3 9 8 9 7 5 3 6 3 5 7 3 7 8 4 12 6 3 7
17 17 17 16 16 17 17 18 19 18 17 18 17 17 17 14 15 13 12 9 2 6 8 4 3 9 12 7 8 7 7 6 6 5 4 3 6 4 4 2 4 3 4 4 4 5 9
14 12 15 17 18 15 17 19 19 18 17 19 19 18 17 18 16 8 9 1 8 7 9 15 14 11 12 7 6 10 9 5 4 3 3 4 4 4 3 7 3 11 7 3 5 4 7
15 17 14 14 16 16 16 16 17 17 17 17 19 20 20 15 12 8 6 5 6 5 4 14 16 2 6 5 1 6 9 6 6 7 6 4 4 1 6 4 8 4 7 3 3 3 3
15 12 16 18 16 15 15 16 16 15 15 15 18 19 21 9 10 10 5 8 7 6 11 9 7 11 8 8 6 2 9 2 3 3 4 2 2 2 5 5 6 9 3 4 3 3 3
20 19 15 16 16 16 15 16 15 14 13 14 13 7 15 6 15 11 9 8 7 15 17 7 8 10 9 6 7 6 2 1 2 2 7 3 2 2 1 7 9 5 4 4 1 3 2
16 12 14 17 17 17 16 16 14 13 12 13 7 2 5 4 8 5 10 7 7 15 20 13 7 13 5 8 4 4 3 1 5 3 5 3 3 4 9 7 10 5 2 6 3 4 4
16 14 17 18 16 16 15 15 15 13 11 9 5 9 16 16 3 7 4 10 14 18 17 5 6 5 11 6 4 2 5 5 6 3 3 4 1 3 6 2 7 3 8 9 4 0 5
13 17 18 19 18 17 16 14 13 12 9 11 4 3 4 10 21 5 6 11 13 18 16 21 16 16 15 7 3 4 3 4 5 3 6 4 1 4 3 4 2 4 5 5 8 4 7
19 21 22 23 23 20 16 14 13 11 9 11 8 4 6 3 4 8 7 6 13 12 16 22 7 15 14 4 5 5 1 3 3 9 3 3 2 2 7 12 14 15 16 14 10 12 7
23 18 16 17 17 18 17 15 14 11 11 15 7 2 3 4 11 1 9 9 14 7 4 6 3 6 1 2 2 3 2 1 3 2 3 1 3 2 5 7 7 14 16 17 17 19 14
20 21 22 22 21 19 18 18 16 12 15 11 10 18 4 5 4 6 3 9 5 5 10 16 6 6 3 1 2 6 7 6 2 6 7 4 1 1 4 7 12 11 10 14 13 15 18
22 21 17 17 18 19 18 19 17 16 19 20 12 4 4 2 3 5 14 14 13 9 5 6 19 6 2 4 6 5 7 10 7 7 9 6 4 3 4 6 4 2 11 4 6 9 13
17 19 20 20 21 21 20 20 19 19 19 22 20 14 3 2 4 8 9 8 14 13 3 3 5 4 2 1 2 3 3 3 5 10 10 8 4 1 2 2 10 4 5 4 3 6 6
21 20 21 22 21 19 17 16 19 16 23 23 23 18 10 3 5 5 4 8 3 7 8 7 6 3 2 2 2 2 3 2 3 4 10 8 5 4 2 3 4 1 10 7 2 3 9
21 22 23 22 19 17 17 16 17 16 20 25 20 20 16 7 16 14 3 3 3 4 4 5 13 4 1 2 1 2 3 3 3 4 2 3 3 11 6 4 7 8 3 7 0 5 15
22 23 23 22 20 19 18 17 16 12 17 25 24 20 21 7 14 14 10 9 8 2 2 9 9 3 1 1 2 3 3 4 3 4 4 6 6 5 3 5 8 5 6 1 8 17 20
24 24 21 20 22 21 21 19 18 15 14 25 23 23 20 14 9 9 11 17 23 22 12 2 6 5 2 2 0 2 2 3 1 4 3 5 7 5 6 3 11 20 20 22 21 19 18

GFSGBSN_850_spd_081.txt.gz
Wind_Speed
5 5 6 7 8 8 11 13 16 19 20 19 20 23 24 27 26 25 26 24 24 23 23 22 22 23 24 11 22 14 17 11 3 8 7 6 9 7 5 5 11 9 8 13 22 22 23
10 10 10 8 9 10 12 14 14 15 18 18 21 23 25 27 27 27 26 26 25 24 23 21 20 20 12 9 6 5 13 23 11 11 10 8 6 7 9 5 6 7 9 16 18 23 22
6 6 7 10 12 13 14 14 16 15 18 17 19 21 26 28 28 28 26 26 25 23 22 22 19 19 16 36 17 17 17 16 13 12 13 12 8 6 1 5 11 10 9 8 7 4 7
7 9 10 10 11 12 13 13 15 16 17 18 21 24 28 27 30 29 25 25 24 22 24 23 21 15 16 17 17 13 13 22 20 13 14 16 13 13 6 8 7 4 4 6 1 8 8
7 8 9 11 12 12 12 12 14 14 16 19 22 23 26 27 29 29 25 23 20 17 19 13 13 12 17 11 12 2 4 4 10 8 9 12 14 11 5 2 4 2 11 11 7 7 7
7 8 9 10 13 13 14 14 15 16 17 21 22 24 27 28 29 27 23 20 12 8 7 2 5 6 15 5 3 3 5 4 6 6 5 8 6 3 2 4 7 4 7 6 4 4 5
12 11 13 14 13 9 12 15 17 18 20 21 18 20 23 28 28 25 20 15 11 4 16 10 11 16 17 9 9 8 8 5 4 8 5 3 3 6 8 6 4 5 9 16 8 8 9
9 12 14 14 12 11 10 12 16 19 20 20 19 19 22 27 29 19 11 8 10 15 18 28 33 39 47 39 16 21 13 3 4 6 4 1 6 8 6 6 7 7 9 11 11 9 8
9 9 9 9 9 11 12 15 16 18 18 20 22 23 23 25 24 12 13 6 15 19 8 20 30 23 30 29 26 40 21 5 5 6 6 6 4 3 5 6 7 10 8 10 13 6 10
10 12 12 12 13 12 14 15 16 17 20 21 21 21 21 22 12 19 7 9 11 15 5 7 7 10 14 14 9 39 22 15 5 11 6 5 2 3 3 4 5 9 6 11 11 5 6
8 12 11 10 10 11 12 14 17 18 19 18 17 17 16 14 17 18 18 10 9 6 5 3 4 3 13 13 5 8 24 17 9 6 7 5 5 3 4 5 4 5 9 13 3 4 7
12 12 13 12 12 12 12 13 15 16 17 16 17 16 15 14 16 12 19 8 5 2 9 7 1 3 5 9 2 8 10 9 7 5 2 4 2 5 6 4 4 4 7 4 2 2 7
10 10 9 10 11 13 13 14 15 17 17 16 16 17 15 15 17 15 15 7 1 5 8 7 9 9 11 4 3 4 6 6 6 5 5 2 4 2 3 1 4 4 3 2 2 3 7
9 10 11 13 11 8 12 13 15 16 16 16 16 16 15 16 14 11 11 1 9 9 6 11 12 17 9 5 6 6 7 4 1 4 3 5 2 7 4 6 4 6 5 3 5 3 3
6 11 11 8 10 10 12 13 14 16 15 15 16 18 20 17 11 8 2 7 4 3 4 11 12 7 9 11 14 5 8 8 6 6 5 4 3 2 5 5 5 3 8 3 6 3 3
9 10 12 11 10 10 11 13 13 14 14 14 15 17 20 9 7 8 3 11 3 4 7 5 5 7 6 11 13 5 8 0 4 4 3 3 1 1 2 4 5 5 5 2 4 4 3
9 13 14 8 10 11 12 12 13 14 13 12 12 7 6 8 6 8 4 6 6 11 14 6 5 6 6 8 16 5 2 1 4 3 7 3 2 1 1 6 6 4 3 4 4 3 2
10 14 8 8 11 12 12 13 13 12 11 11 5 2 4 6 3 4 6 4 3 10 9 5 5 8 4 8 11 7 4 4 3 1 4 3 3 4 9 3 5 3 2 5 3 3 4
11 14 9 10 13 13 12 11 12 12 9 7 3 7 12 15 3 1 5 9 8 10 11 4 5 2 4 5 6 4 4 1 5 4 4 3 3 3 6 4 2 1 1 5 6 3 6
9 6 10 14 15 15 15 13 12 9 8 7 2 3 5 7 8 3 5 8 7 15 14 15 10 12 13 7 17 4 2 2 5 5 7 4 3 4 3 4 1 6 8 7 4 4 4
10 11 15 18 19 20 15 13 11 9 9 7 5 4 5 3 2 10 5 4 9 9 13 16 4 12 8 4 11 4 3 3 5 7 3 3 3 3 6 10 11 14 15 14 15 14 7
14 14 15 12 11 12 13 12 12 9 9 11 4 3 3 6 9 3 1 3 11 16 5 5 12 7 6 8 7 2 2 3 3 1 3 0 1 1 4 7 7 12 18 15 14 18 16
11 14 17 18 18 17 16 15 14 10 13 10 10 15 11 4 4 1 2 5 11 12 11 12 3 4 4 3 3 4 3 2 2 4 3 2 2 2 4 6 11 8 4 6 9 17 15
17 20 19 18 14 13 14 15 15 13 17 17 14 8 5 2 3 4 8 14 14 11 3 3 3 3 5 5 7 4 4 4 4 6 6 6 3 2 3 5 3 4 6 8 12 7 10
16 14 13 15 16 16 17 16 17 16 18 20 20 15 3 2 3 7 9 9 14 15 8 5 2 6 12 4 2 3 3 3 4 7 10 7 4 1 2 3 8 8 3 6 7 5 11
19 17 17 18 17 17 17 18 16 15 20 23 22 17 8 2 5 1 4 9 4 7 7 6 19 8 5 3 2 1 1 2 3 5 3 5 2 3 1 2 4 3 0 3 8 6 16
20 19 19 18 18 18 17 17 15 16 17 20 19 20 14 4 13 15 4 5 5 3 3 5 14 8 8 2 2 1 2 2 3 3 3 3 2 11 7 4 6 5 8 7 4 5 13
21 18 17 18 18 18 17 17 16 14 12 20 26 21 23 7 14 8 9 14 11 3 1 7 6 5 3 2 1 1 2 3 2 4 3 5 5 4 3 3 8 14 7 3 5 11 14
17 17 18 19 20 18 19 18 17 15 13 16 23 21 20 13 8 10 16 18 14 15 11 3 1 2 4 2 1 2 2 3 3 3 3 3 3 3 4 1 10 18 18 18 11 19 15

GFSGBSN_850_spd_084.txt.gz
Wind_Speed
6 6 6 6 8 9 10 12 14 15 16 18 18 20 23 25 27 27 27 26 26 25 24 24 24 25 26 13 21 15 14 13 8 10 10 10 10 7 5 4 5 6 4 9 14 16 18
9 8 9 9 10 11 13 14 16 16 17 18 19 21 24 27 28 29 28 27 26 25 23 23 22 23 18 7 9 7 19 22 15 10 13 13 6 10 4 5 4 3 4 12 15 23 23
4 5 4 7 9 10 11 11 12 14 15 17 19 22 24 26 29 30 31 27 26 26 25 24 23 22 22 37 22 21 16 13 20 15 16 15 11 7 2 3 8 8 7 7 6 8 8
5 5 6 6 7 9 9 11 13 14 15 18 20 22 26 27 29 29 31 28 26 26 24 20 19 17 16 23 22 24 17 22 20 19 17 14 12 10 5 7 6 4 3 2 4 4 7
5 4 3 4 6 9 11 12 13 15 17 19 22 22 23 26 30 30 31 26 22 21 19 14 11 10 15 11 13 8 7 8 10 22 17 14 13 10 5 3 4 2 6 4 6 4 5
6 5 5 7 12 12 7 11 14 16 17 19 21 21 23 26 30 30 28 25 18 14 13 9 5 7 12 7 7 4 7 5 5 11 12 9 7 4 3 4 7 6 5 3 3 4 6
13 12 12 11 12 10 7 8 11 14 18 19 20 23 24 26 28 25 25 22 13 5 21 11 19 21 36 22 19 6 5 4 5 7 5 5 4 7 9 5 2 3 4 7 4 5 9
9 9 10 10 6 5 8 9 13 15 16 18 21 23 24 26 24 17 16 8 12 15 18 30 33 39 42 41 24 38 16 5 6 5 4 1 8 7 7 5 5 5 7 8 7 5 6
8 7 5 6 7 7 8 10 12 15 16 18 19 18 21 24 18 17 13 4 17 22 8 18 23 19 18 16 24 35 16 9 5 7 7 6 4 5 7 5 5 5 5 4 8 8 9
9 9 8 7 8 9 10 12 14 15 16 15 16 16 19 22 9 20 8 14 13 15 5 8 5 6 6 8 8 34 28 19 6 10 6 7 5 6 4 4 7 3 5 4 7 7 2
6 5 6 6 7 8 8 9 10 12 15 16 14 15 16 17 17 18 17 17 9 5 6 4 4 5 3 6 18 7 27 22 12 7 6 5 5 4 3 5 6 5 2 3 4 4 6
12 10 10 10 9 8 9 9 11 14 15 15 14 15 16 14 15 13 17 14 7 1 8 7 3 11 9 8 7 5 11 8 10 5 1 5 1 4 6 3 5 3 1 4 4 2 5
6 6 5 3 7 9 8 8 10 13 15 15 14 14 14 16 15 16 15 9 2 4 8 6 9 13 14 11 4 6 5 4 5 5 5 2 4 3 3 1 1 2 2 2 3 3 5
10 3 6 8 6 6 7 9 10 12 14 15 14 15 14 16 16 12 9 3 4 3 6 12 13 17 6 15 8 4 7 4 1 5 4 6 2 7 4 4 3 4 4 2 4 3 4
7 5 6 5 7 8 7 8 10 11 13 15 16 16 16 14 7 5 3 3 3 2 9 11 15 5 5 9 9 7 5 7 7 7 4 4 1 2 2 3 5 3 4 2 4 3 5
4 5 7 9 8 5 6 8 9 10 12 14 15 16 9 9 5 6 3 5 4 6 12 8 4 6 6 13 9 12 3 2 4 6 2 4 4 2 1 3 1 3 3 1 3 3 4
7 8 9 6 3 5 7 8 9 10 11 12 12 8 6 8 2 3 2 4 3 14 14 5 6 8 7 8 9 7 2 4 3 2 5 3 3 1 1 3 5 2 1 2 1 3 2
11 7 8 6 4 5 7 8 8 9 10 9 6 2 4 5 1 2 2 2 2 7 9 5 5 9 12 1 7 7 5 5 9 2 4 1 4 2 6 2 3 1 4 4 3 2 4
9 8 11 8 5 7 7 8 8 8 8 6 3 5 6 7 0 2 3 7 8 5 6 4 4 7 2 6 6 7 5 2 6 3 4 4 2 1 2 2 3 2 2 3 2 4 5
10 7 6 7 9 10 10 10 9 5 6 2 1 2 3 1 2 2 4 7 6 10 14 14 9 10 12 6 9 9 14 7 2 3 7 3 2 3 3 2 2 3 3 5 5 3 5
10 9 8 9 11 13 12 8 5 6 6 3 2 2 2 3 3 3 4 3 11 10 13 10 5 16 13 5 5 4 6 5 6 4 3 3 3 1 3 5 2 6 9 11 10 13 9
11 12 10 12 8 6 6 6 5 9 8 8 3 1 2 7 12 5 4 3 12 9 4 6 12 9 10 8 6 3 6 3 2 3 2 2 3 3 3 4 2 4 15 14 12 14 15
16 13 12 11 11 13 12 11 8 10 10 6 6 8 5 6 4 1 3 3 10 13 13 21 9 4 5 9 20 17 14 5 3 3 1 2 3 2 3 4 6 5 5 4 6 8 14
11 13 14 16 13 12 8 9 9 10 12 13 11 3 2 4 3 5 10 15 16 15 12 5 17 6 3 13 10 8 9 8 5 6 5 6 4 1 2 4 2 5 0 4 7 13 9
13 15 14 10 11 12 11 11 11 12 14 17 17 13 5 3 5 10 8 12 19 21 12 3 8 2 10 9 1 1 2 2 5 6 7 3 4 2 1 1 6 9 2 2 2 18 12
13 14 14 13 13 14 13 12 12 11 12 18 20 18 7 1 5 8 5 8 5 7 7 3 22 7 5 1 1 2 2 1 2 1 4 5 4 3 2 1 3 4 3 8 7 5 17
16 18 16 16 15 14 14 14 13 13 12 17 22 23 13 5 13 15 5 3 7 7 5 6 18 11 13 3 2 1 1 2 1 3 2 3 1 7 6 5 5 4 12 16 5 7 14
16 17 18 16 14 14 14 14 13 13 13 15 21 19 22 7 16 15 11 9 15 9 2 15 9 5 5 5 3 3 3 3 3 2 2 4 4 3 3 3 6 19 10 3 4 12 13
20 16 14 13 13 14 15 14 14 15 13 14 19 19 19 13 10 13 17 22 24 20 10 4 2 4 5 3 1 2 2 3 2 2 5 1 3 2 4 1 9 16 14 15 18 16 15

GFSGBSN_850_spd_087.txt.gz
Wind_Speed
8 5 5 4 4 5 7 9 11 12 12 14 15 16 19 21 23 24 24 23 24 24 23 24 24 25 24 10 19 18 19 14 9 8 11 12 12 8 6 6 6 7 6 10 11 17 16
8 8 8 7 7 8 9 9 9 10 12 12 15 19 21 23 25 25 26 25 24 24 24 23 23 24 17 5 9 9 14 17 13 11 12 13 8 12 5 5 6 5 5 7 9 16 16
8 6 4 4 4 4 5 6 9 10 12 14 17 19 22 23 25 26 26 24 24 25 24 21 19 19 17 28 21 23 19 23 17 23 16 15 15 7 5 2 4 4 7 7 8 13 10
6 5 3 2 2 3 5 7 9 12 13 15 17 19 20 21 24 25 27 26 22 23 22 20 17 15 12 18 16 16 16 20 20 19 21 16 14 12 6 6 2 3 4 5 2 3 6
8 5 3 3 3 4 7 8 9 12 14 16 17 19 22 24 26 26 27 25 21 19 16 16 13 7 12 6 6 6 7 9 6 15 22 15 14 8 4 3 5 1 8 6 6 2 3
7 8 8 7 6 7 4 3 7 11 14 16 17 21 22 25 28 28 27 26 15 12 9 7 7 5 7 9 7 10 10 4 3 6 15 10 6 5 4 7 10 6 6 5 7 2 12
11 12 11 9 8 6 2 5 7 11 14 16 18 21 22 24 26 22 26 19 12 4 21 12 22 22 38 33 37 28 11 9 4 8 9 7 7 14 18 16 13 3 4 8 6 8 12
12 11 11 8 5 1 1 4 8 10 13 15 18 18 19 19 18 22 17 12 14 12 15 31 36 33 35 31 17 22 21 5 6 10 5 4 16 11 9 10 11 13 14 14 8 9 7
9 8 7 5 4 4 5 5 8 11 12 13 15 16 18 19 11 20 14 16 16 18 6 16 15 10 13 4 8 22 19 19 8 12 12 13 5 10 11 7 10 11 13 8 9 8 11
11 8 6 5 3 2 2 4 6 8 11 12 14 15 17 19 7 19 7 14 10 12 4 7 4 2 5 4 6 16 17 17 11 16 11 11 7 5 9 11 12 13 9 9 6 4 4
9 7 6 4 2 2 3 4 7 8 10 12 13 15 15 15 13 12 16 14 5 1 6 3 4 2 16 5 18 3 10 26 12 9 9 6 7 8 12 8 9 4 4 4 4 5 4
12 10 6 4 4 2 4 5 6 8 11 12 13 13 13 13 12 13 15 9 1 1 7 7 4 13 19 21 7 3 2 8 15 4 1 6 3 4 4 4 7 5 2 3 3 4 5
10 11 7 4 3 2 3 4 6 8 10 12 12 11 12 13 12 11 11 4 1 4 7 5 8 13 18 10 9 12 4 12 5 11 10 3 3 2 2 5 2 4 3 2 2 4 5
11 7 4 3 2 1 1 3 6 8 10 11 12 12 13 10 9 5 5 2 5 2 5 10 12 17 9 11 7 9 10 9 6 3 8 10 5 9 5 4 5 9 5 3 3 3 2
9 9 5 3 3 1 1 2 5 7 9 11 11 12 9 9 9 2 1 1 3 2 3 10 13 6 4 9 11 9 7 12 6 7 4 7 2 2 3 3 5 5 4 0 2 4 4
12 9 5 4 6 2 1 2 5 7 9 10 11 10 9 10 8 4 3 4 4 4 8 8 5 5 6 12 14 12 5 5 5 7 2 5 6 0 3 3 2 2 4 3 2 2 3
11 9 9 6 4 4 0 2 5 7 8 9 8 3 7 11 5 2 1 4 5 11 9 4 6 9 10 12 8 6 6 12 8 4 3 4 3 4 5 4 7 4 2 2 1 2 2
13 9 6 6 7 2 2 2 3 5 7 7 4 2 2 8 2 0 2 3 7 12 10 7 6 10 13 11 7 4 7 7 21 20 5 2 3 4 3 1 4 2 4 4 2 2 2
6 10 8 6 8 2 3 2 4 5 4 5 2 2 3 4 2 1 5 6 7 8 6 3 5 7 10 6 6 8 6 6 22 6 5 4 1 5 3 3 2 3 4 2 3 2 5
6 5 5 10 6 3 4 5 6 4 2 2 2 2 2 2 1 2 3 6 5 8 12 10 11 11 15 9 10 7 7 8 14 6 8 3 3 1 3 5 3 2 3 2 3 3 5
7 8 9 6 6 7 7 5 3 5 1 1 2 0 1 2 2 3 3 3 9 8 4 12 6 15 13 4 5 6 5 7 7 11 3 3 4 4 2 4 3 3 6 6 7 12 7
9 8 9 6 8 6 3 4 3 4 3 5 4 2 2 6 9 0 3 3 9 8 5 9 9 17 12 9 9 6 2 4 4 5 5 4 2 2 2 1 4 6 11 10 10 10 13
13 12 13 11 9 7 6 6 7 7 6 4 4 4 3 4 2 1 2 4 10 15 13 16 19 16 12 12 11 17 14 14 8 6 2 2 3 2 3 2 7 4 1 4 7 8 9
15 12 11 10 10 10 9 6 9 10 8 9 7 4 3 4 3 4 9 15 13 14 13 22 14 9 2 9 14 11 12 14 13 5 1 3 3 1 2 4 1 2 8 3 5 12 11
15 14 11 11 10 12 10 9 9 10 11 11 13 8 4 3 5 10 10 8 13 16 10 5 14 10 14 8 2 2 1 2 3 2 3 2 3 2 1 1 4 2 4 5 9 15 14
14 11 9 9 9 11 12 11 10 9 12 14 14 12 7 1 3 4 7 11 7 9 9 7 26 11 3 2 1 0 1 2 2 2 7 4 2 2 1 2 2 2 10 14 9 3 15
17 15 14 14 10 12 12 12 11 10 10 13 15 15 16 5 9 4 3 5 6 6 6 9 21 11 14 4 3 3 2 2 2 2 1 2 1 3 2 2 5 10 16 14 3 5 12
12 9 14 16 13 14 13 12 12 10 11 13 15 16 18 7 16 17 13 11 13 8 5 16 9 8 6 7 4 3 2 3 3 3 3 1 2 2 2 3 3 17 5 5 3 5 14
11 13 16 16 14 12 13 12 11 12 12 13 13 12 13 14 10 18 24 26 21 15 8 5 2 4 5 3 3 3 2 2 2 1 5 2 4 3 4 3 7 14 12 12 15 13 17

GFSGBSN_850_spd_090.txt.gz
Wind_Speed
16 13 11 9 8 7 6 7 8 8 8 9 10 13 15 16 17 18 20 20 19 20 19 19 20 20 18 7 13 13 11 11 9 6 7 10 14 16 16 12 19 19 20 18 20 21 23
15 13 12 10 9 8 7 6 5 6 8 9 11 13 14 16 17 18 18 19 19 21 20 18 18 18 9 10 12 10 11 7 12 12 9 12 9 14 16 16 16 11 14 19 15 19 21
15 13 11 10 9 7 5 4 4 5 7 9 11 11 13 14 16 18 19 19 19 20 19 17 16 15 11 18 16 17 19 21 16 15 17 12 14 10 4 12 15 14 16 17 18 20 19
15 13 11 9 8 7 4 3 4 5 7 8 10 11 14 15 17 19 20 20 21 18 16 16 14 11 10 15 13 10 8 12 18 21 20 20 11 14 18 14 12 10 14 14 10 11 12
14 11 10 8 7 5 3 3 3 4 7 9 10 12 15 18 20 22 22 22 19 14 12 13 6 5 9 4 1 3 8 8 6 9 20 10 10 16 13 15 15 14 16 14 11 11 7
15 12 12 12 10 5 4 5 4 5 8 9 11 14 16 18 20 21 22 22 13 10 7 10 4 8 6 4 14 10 9 11 6 5 8 15 12 12 13 14 16 15 19 12 14 6 10
16 17 16 13 8 7 6 7 7 8 8 9 11 13 15 17 18 22 24 12 9 2 16 10 19 20 28 17 19 16 12 13 13 11 14 19 14 19 22 20 17 12 14 15 9 8 17
20 18 16 15 12 8 7 6 6 5 7 8 10 12 12 14 14 18 17 10 6 8 13 19 18 18 16 12 9 11 9 11 20 18 14 11 22 20 15 14 17 20 21 20 17 13 14
20 17 16 13 11 10 9 7 6 4 6 8 11 11 11 13 10 15 12 12 9 9 7 11 4 5 4 3 5 7 3 10 21 19 19 19 4 17 17 16 17 18 18 14 15 14 19
17 15 13 11 10 9 8 5 2 3 6 8 9 11 11 11 6 11 4 11 8 7 5 3 3 3 4 5 6 16 7 10 13 26 21 18 20 7 15 19 16 17 14 14 14 10 7
17 15 14 11 9 7 5 3 1 2 5 8 8 9 10 11 6 5 8 9 4 1 6 3 4 4 11 5 17 4 7 8 19 21 15 17 10 18 16 13 14 13 5 10 9 10 12
17 14 12 11 7 6 4 3 2 3 5 7 7 8 11 9 7 6 7 4 0 5 8 2 2 6 13 17 13 11 7 7 11 16 20 21 3 10 14 14 12 5 7 8 8 8 10
18 17 13 8 8 6 5 4 1 2 5 6 6 8 10 9 4 6 5 1 5 6 5 3 7 12 17 16 12 7 8 8 9 13 19 19 13 5 8 11 9 14 11 5 7 5 6
17 15 11 10 9 8 6 3 2 2 5 5 6 7 8 8 7 4 3 4 8 4 7 14 16 21 17 9 8 10 5 9 12 15 12 17 15 14 10 12 8 16 13 6 8 6 3
17 13 10 9 9 6 6 4 1 3 5 6 5 5 8 9 7 4 2 5 6 7 5 10 18 14 9 3 11 9 10 10 9 17 14 16 17 10 11 10 11 9 9 5 4 5 5
16 15 10 9 10 7 7 3 1 4 5 6 5 6 9 9 7 3 2 4 4 6 11 10 14 9 11 16 16 12 10 5 11 10 10 6 11 12 10 11 6 7 9 4 5 5 6
18 16 14 9 8 10 6 4 2 4 5 5 4 4 2 6 6 1 1 2 8 7 9 6 9 14 16 17 14 15 8 8 3 13 11 9 8 12 12 11 16 7 7 5 2 3 3
17 16 13 10 13 9 6 4 3 3 4 5 4 2 2 4 2 0 2 5 9 10 8 10 8 12 12 11 11 9 9 7 9 12 10 11 4 10 12 5 6 6 7 9 5 5 1
17 16 11 11 12 9 6 4 2 2 4 6 3 2 4 3 1 2 3 7 8 12 9 5 9 10 11 12 7 9 9 9 16 5 7 6 6 8 8 5 4 7 4 5 4 0 7
11 13 12 11 14 8 7 5 3 3 4 6 3 1 1 3 3 4 7 5 8 10 13 9 11 15 14 12 9 11 13 11 20 16 25 18 2 4 7 8 8 6 9 8 6 4 4
6 11 8 16 11 9 7 5 4 7 5 5 3 2 2 1 2 6 5 5 11 9 5 17 6 8 12 6 11 13 9 10 11 12 3 2 9 10 9 8 5 5 7 9 9 7 6
9 6 15 11 10 7 6 8 8 7 6 4 3 1 1 2 4 4 2 4 9 12 7 13 10 19 19 14 14 16 14 13 4 11 9 11 5 5 6 4 3 3 5 8 8 8 8
10 7 15 13 12 10 10 9 7 6 6 3 4 2 1 1 2 3 2 6 15 13 10 14 19 17 13 13 12 16 18 23 14 8 7 5 1 2 3 2 5 4 2 1 1 5 9
13 14 16 17 12 11 10 9 10 8 6 4 5 4 1 1 4 5 10 12 11 14 13 22 15 4 5 11 13 17 17 20 13 9 7 3 5 3 2 4 2 7 6 5 7 10 12
15 16 16 15 14 13 11 10 12 10 9 7 6 3 1 3 6 5 10 11 15 12 13 15 13 16 15 9 3 3 2 3 4 6 3 2 1 2 1 2 2 7 8 8 10 4 11
17 21 17 15 11 12 15 14 12 11 9 11 8 8 4 4 1 6 13 8 10 12 10 4 20 6 2 3 3 1 2 3 3 3 6 1 2 3 0 1 1 7 13 16 11 2 12
19 20 15 13 11 13 14 14 13 11 10 12 11 9 6 5 8 4 8 9 9 10 7 11 20 11 13 3 2 4 3 4 2 2 1 2 2 2 2 2 4 11 19 28 3 6 11
21 19 16 16 15 12 14 14 13 12 11 12 12 11 10 5 14 13 12 11 10 7 6 13 7 11 8 7 5 3 3 4 3 4 4 3 3 2 2 3 2 24 5 6 7 9 9
21 17 14 14 15 15 15 14 14 13 12 12 11 9 8 11 10 12 15 20 17 14 11 8 5 5 4 4 5 4 2 2 4 2 6 2 5 4 5 3 8 12 12 10 12 11 11

GFSGBSN_850_spd_096.txt.gz
Wind_Speed
34 31 26 23 21 19 18 16 15 14 14 13 13 12 12 12 11 11 11 13 14 15 14 16 16 14 12 8 18 9 14 13 10 6 10 13 16 18 19 19 25 26 25 33 32 32 31
40 34 26 24 22 19 18 17 16 15 14 13 12 12 11 11 11 11 12 12 14 15 16 15 13 12 9 13 6 5 6 7 8 12 14 16 16 18 23 21 20 24 29 27 31 30 31
42 36 28 26 23 21 18 18 17 14 13 13 11 11 11 11 12 11 12 13 14 15 15 13 12 10 12 25 8 12 13 13 13 15 18 19 18 20 18 16 27 27 23 22 24 25 24
34 31 28 24 24 21 20 18 16 15 14 12 10 10 11 11 12 11 12 13 14 13 12 9 5 5 11 7 12 11 11 11 12 14 19 19 18 22 25 25 27 22 19 19 22 23 26
34 31 26 26 24 21 20 19 16 15 14 11 10 10 10 10 10 11 12 14 12 13 10 5 2 3 10 8 9 6 7 10 10 11 14 15 19 22 21 17 18 20 20 25 27 22 23
36 33 31 29 24 21 19 16 16 16 13 10 10 9 9 9 10 11 13 10 12 11 5 5 8 7 14 9 7 15 17 19 19 18 18 14 13 17 18 16 20 21 23 24 25 21 22
38 35 30 27 25 20 19 19 16 15 12 11 9 9 8 8 10 12 14 13 7 3 8 12 13 15 21 20 16 17 12 14 17 21 18 19 13 22 23 23 27 24 26 25 23 18 19
41 33 30 27 23 21 20 17 18 16 11 11 9 8 6 7 7 9 14 6 7 7 15 24 27 29 24 18 12 16 5 7 13 18 19 18 23 24 22 25 26 27 27 27 22 21 17
38 32 29 26 24 23 17 16 15 13 11 11 9 6 5 5 5 8 5 9 8 8 7 16 11 9 5 9 13 16 10 12 13 17 18 21 27 24 26 24 26 26 26 21 20 19 18
34 36 29 28 25 21 17 20 16 12 11 9 7 4 3 2 3 4 2 7 7 7 5 5 6 6 6 5 13 9 12 20 20 20 21 23 21 26 28 26 24 25 23 18 19 16 16
39 35 30 26 24 22 20 21 15 12 11 8 5 2 2 0 1 3 6 9 6 2 5 5 8 5 3 6 15 16 15 25 19 22 22 25 25 24 27 30 24 19 22 16 18 18 17
40 36 30 26 22 22 21 18 14 12 10 7 3 1 2 7 5 4 8 4 1 3 6 4 3 2 9 15 20 27 27 25 30 26 24 26 36 28 26 27 26 12 16 15 17 13 15
34 32 25 21 20 18 16 15 13 12 10 5 2 1 1 3 4 8 4 3 5 5 5 3 6 12 16 21 22 19 20 19 17 20 19 26 25 27 27 26 11 13 10 8 7 10 13
28 22 21 19 17 15 14 13 12 10 7 4 2 2 4 2 5 3 3 5 6 6 8 16 14 18 19 18 13 11 14 15 18 9 9 16 21 15 19 18 9 23 18 7 7 7 13
28 25 20 19 17 15 13 11 10 9 6 5 5 6 2 8 3 2 7 5 6 11 12 12 16 15 11 17 13 8 13 15 14 10 5 9 14 17 22 8 6 17 23 20 12 14 6
25 22 20 17 16 16 15 12 11 9 9 9 5 3 4 7 1 3 5 5 5 9 9 11 14 11 18 18 18 16 16 14 14 7 3 4 11 17 9 13 20 12 12 13 7 4 4
25 22 18 14 17 15 13 13 11 10 9 9 4 5 3 1 1 7 3 2 6 10 8 7 14 17 17 18 17 16 7 16 5 8 9 13 7 13 12 7 15 11 4 4 7 10 2
20 17 16 18 15 13 15 13 11 10 11 7 2 2 0 4 4 4 3 4 3 7 9 11 9 12 12 14 16 17 18 14 2 10 11 9 5 7 15 19 28 19 14 17 4 5 7
21 18 16 14 13 16 13 12 12 12 11 6 5 4 2 2 2 2 5 6 3 6 10 12 11 11 15 15 15 13 15 18 3 5 5 6 4 5 4 13 21 19 16 11 14 2 6
22 23 21 13 12 14 11 11 11 12 12 4 1 0 5 8 3 5 3 3 7 11 12 14 16 19 12 12 14 8 17 9 15 11 22 14 6 10 10 10 12 16 15 3 2 4 4
21 22 17 12 16 14 11 10 9 13 12 5 1 3 1 2 4 3 2 3 9 12 8 19 7 13 15 17 17 17 10 14 14 18 6 3 7 9 23 29 13 10 11 7 7 5 3
21 16 16 14 19 14 11 8 9 14 11 4 3 2 2 2 5 4 6 3 8 11 10 10 10 17 16 16 16 17 14 13 8 7 4 3 3 10 9 4 21 12 8 16 9 9 9
17 16 13 17 19 13 9 7 14 15 9 2 1 1 5 8 8 6 4 5 8 4 9 13 14 15 15 10 19 23 22 26 19 14 6 4 1 2 11 15 19 15 10 11 19 20 14
16 12 16 19 14 11 10 11 14 15 9 6 3 1 3 4 4 2 4 9 9 5 4 12 12 11 11 25 25 21 26 23 21 15 6 6 11 1 3 4 9 11 17 19 21 18 18
15 14 16 13 13 11 12 12 12 14 8 8 4 2 3 4 5 3 6 7 11 3 7 6 9 11 15 11 5 8 2 4 3 4 4 6 8 3 3 9 9 14 18 15 11 11 17
16 12 7 14 14 14 14 9 9 13 11 9 5 2 3 4 3 8 7 8 7 9 7 4 16 8 4 3 4 3 4 3 3 4 6 7 6 3 2 6 3 9 18 20 9 4 15
15 10 9 11 18 15 13 10 9 12 12 8 2 2 2 3 3 8 8 6 10 11 8 8 23 11 6 3 4 4 5 7 4 4 7 5 6 7 5 5 6 17 23 19 2 5 13
13 9 12 16 16 12 13 13 12 10 9 7 2 2 2 4 12 6 7 10 11 11 7 18 10 10 7 7 6 5 4 6 4 11 7 8 6 6 7 5 4 30 10 7 5 11 11
11 12 18 18 15 11 12 12 14 11 8 8 3 4 7 5 10 18 13 11 13 9 9 9 3 11 8 5 6 4 4 5 10 3 12 5 5 3 6 4 10 15 15 13 12 11 13

GFSGBSN_850_spd_099.txt.gz
Wind_Speed
42 42 40 38 33 27 24 21 21 20 18 17 16 15 15 16 16 14 14 14 14 14 15 16 17 16 13 6 15 13 13 13 13 9 10 8 15 17 10 8 21 17 17 26 28 31 32
46 44 43 39 35 30 23 22 21 20 18 18 17 16 16 15 14 14 14 14 15 16 16 16 16 14 10 5 4 7 11 13 12 7 14 13 15 19 21 16 11 14 20 22 29 28 26
50 46 44 38 31 29 27 24 21 19 19 18 16 16 16 14 14 13 13 14 15 16 16 14 14 12 14 25 11 9 13 15 13 11 17 17 19 19 19 12 18 23 14 17 19 14 11
50 50 43 35 32 29 25 24 22 20 19 18 16 16 15 14 13 12 13 14 14 15 13 11 10 8 12 8 8 17 12 11 9 12 13 13 23 25 14 17 19 15 8 9 12 15 21
52 51 47 35 34 28 27 26 23 20 19 20 17 16 14 12 11 11 12 14 13 13 11 6 6 5 11 6 9 7 6 7 9 12 9 13 15 24 16 5 9 7 15 16 20 10 15
55 54 46 39 34 30 29 24 23 21 21 18 16 15 13 10 9 10 11 12 9 12 6 6 4 7 12 7 5 10 12 14 18 18 19 16 14 7 2 6 16 4 10 14 18 22 15
62 55 48 41 37 35 27 25 22 20 18 16 15 13 10 8 6 6 9 5 5 4 8 12 10 13 13 14 20 16 17 15 13 13 6 16 10 14 9 14 19 17 19 21 19 13 13
58 55 48 42 40 31 26 24 21 21 20 17 13 10 8 6 2 6 11 5 6 8 14 22 29 34 33 30 16 16 13 7 7 6 6 6 20 14 12 17 19 22 25 25 22 21 17
62 54 47 44 35 28 27 25 25 24 20 16 12 8 7 3 3 6 5 7 7 10 4 17 13 14 5 8 9 12 11 11 7 9 8 13 11 12 16 20 23 22 20 19 19 16 8
61 55 51 41 33 30 28 26 21 18 17 14 10 8 5 3 3 5 5 5 11 9 3 4 4 2 4 2 3 8 8 15 13 15 12 13 11 17 20 21 19 21 17 21 20 19 8
58 51 43 37 34 30 27 23 21 19 15 12 10 7 5 5 5 7 5 10 4 3 3 9 5 6 3 6 11 4 26 26 13 15 13 20 15 19 23 23 20 23 19 19 21 17 3
54 47 37 36 34 30 27 24 22 17 15 13 10 8 8 7 5 5 5 2 4 1 6 4 6 3 4 13 17 24 29 28 31 17 18 19 24 6 10 20 24 23 18 7 15 3 9
54 42 41 38 33 28 25 22 20 16 14 10 8 7 6 7 5 7 1 3 2 3 2 6 9 9 13 13 14 15 8 8 6 6 8 11 13 14 19 23 22 16 16 4 4 3 11
45 47 43 38 31 23 20 21 18 14 11 9 8 8 5 3 3 2 5 2 3 3 6 8 11 11 6 9 8 14 13 9 12 6 4 5 11 2 9 13 15 18 10 5 5 5 8
45 39 33 33 28 23 21 17 18 14 12 11 11 10 3 5 3 7 2 2 3 6 9 11 11 6 7 18 14 13 14 13 8 4 1 4 10 19 20 15 17 6 6 18 11 7 3
32 31 27 25 21 20 20 18 16 15 13 14 13 8 4 5 3 6 3 3 3 9 9 7 4 5 11 12 10 9 7 9 14 5 4 4 14 7 12 15 7 1 3 2 6 2 4
32 28 28 23 20 21 18 17 15 13 14 12 11 5 5 1 3 3 2 2 4 10 4 3 7 9 10 11 8 8 6 14 9 5 4 6 6 13 13 4 7 2 1 6 8 4 2
30 26 21 17 19 18 17 16 15 15 16 13 4 3 3 5 2 4 2 2 1 2 7 7 4 7 7 9 13 12 13 11 15 3 5 6 5 7 17 18 7 13 10 12 3 2 4
29 23 19 20 19 17 18 17 17 17 17 10 4 5 4 5 1 2 3 3 3 3 5 7 5 8 13 10 9 6 11 12 12 3 4 3 3 5 9 2 3 4 9 6 4 6 3
23 22 20 19 17 17 17 17 16 17 13 7 2 2 3 4 2 2 4 4 6 12 7 13 12 12 8 10 10 7 11 6 8 5 11 3 6 10 7 6 8 6 17 11 5 4 1
20 20 18 15 17 19 17 16 15 16 12 8 3 2 2 2 1 6 2 1 5 4 4 11 4 10 11 5 14 6 8 6 6 12 3 3 7 12 19 21 15 15 20 15 10 4 3
23 20 16 16 18 16 14 14 15 17 11 7 4 1 3 6 7 3 1 3 5 3 2 6 6 11 11 11 13 12 10 7 6 4 6 3 5 7 20 18 15 6 12 19 12 15 10
22 19 17 18 17 14 13 11 16 17 11 6 4 3 2 9 5 4 4 5 4 6 5 7 8 11 11 10 15 21 19 20 17 14 12 4 3 4 8 20 15 11 17 20 19 20 13
18 16 15 17 18 14 10 15 19 16 13 10 6 3 1 2 4 6 3 6 4 5 5 4 9 6 7 20 25 13 20 21 18 17 14 4 4 2 3 3 7 7 18 23 25 17 15
18 18 20 21 16 12 15 17 18 14 11 11 8 5 5 2 10 2 5 5 11 3 6 4 12 15 16 11 4 6 2 2 7 10 9 10 2 4 3 4 6 12 13 10 10 10 16
20 25 19 16 13 12 16 15 16 14 12 10 8 4 4 2 4 11 8 11 3 4 3 4 22 6 5 1 2 2 3 1 4 7 5 2 6 3 2 5 4 3 21 23 8 6 17
19 17 13 13 11 13 15 12 13 14 12 9 7 5 4 4 1 10 3 3 7 9 3 7 18 9 14 3 3 3 4 8 4 5 6 5 5 7 5 4 4 16 23 21 6 3 15
16 12 11 11 15 14 13 11 13 15 12 8 5 4 4 1 9 2 3 5 11 9 2 13 8 10 6 7 4 3 2 4 2 10 4 7 5 5 4 5 2 30 7 6 6 16 14
15 12 12 15 16 12 11 12 14 13 9 10 5 1 3 3 5 10 14 7 6 6 7 6 2 6 6 3 3 3 2 3 8 3 8 5 5 3 5 4 7 13 16 15 15 17 14

GFSGBSN_850_spd_102.txt.gz
Wind_Speed
37 37 37 36 37 35 33 31 27 23 22 23 21 20 19 19 19 17 16 15 15 16 16 17 18 19 15 8 17 11 10 7 8 9 6 4 7 4 4 6 10 9 14 23 29 31 34
39 40 41 42 42 38 35 33 29 23 22 22 20 19 20 20 19 17 17 15 16 17 17 18 18 16 12 7 6 3 2 7 8 9 7 7 7 11 14 7 6 13 16 18 22 25 29
40 41 41 45 47 42 37 33 28 25 25 23 20 18 20 21 18 16 16 15 16 17 17 17 16 14 17 25 8 11 7 9 9 9 10 11 15 13 13 10 13 15 12 15 17 13 10
42 43 43 44 48 44 39 33 29 26 26 24 22 20 20 20 18 16 16 15 15 17 16 14 14 12 13 8 8 18 11 8 11 16 18 12 8 13 5 9 10 7 6 5 3 3 7
42 45 49 50 45 44 41 34 32 27 24 23 21 22 20 19 16 15 15 15 16 17 14 12 7 6 14 5 4 3 4 5 8 8 5 10 13 14 6 3 6 2 13 11 23 2 6
46 51 49 49 49 47 42 35 32 26 24 23 24 21 19 16 13 13 12 13 11 11 11 9 7 6 11 4 5 4 6 8 12 12 11 10 2 1 3 4 9 1 6 7 14 12 8
49 52 51 53 57 50 41 38 35 27 24 24 22 21 16 13 9 7 7 4 3 2 9 12 8 11 6 8 13 8 10 13 9 6 4 5 3 5 6 9 13 13 16 19 24 25 19
47 53 55 59 57 49 41 41 33 25 25 24 22 17 13 10 6 4 3 2 2 5 10 19 27 33 33 26 17 29 13 6 7 5 2 3 8 10 10 8 12 15 18 23 21 22 20
45 52 63 58 59 49 46 41 30 25 26 25 21 15 12 9 8 6 4 2 5 9 3 10 7 7 6 9 7 7 2 2 4 5 6 8 4 8 8 9 9 13 19 20 22 24 22
42 45 54 58 57 52 48 37 28 28 27 24 20 15 12 8 9 9 9 5 7 9 1 4 3 4 5 5 3 3 12 5 3 3 7 12 8 8 10 15 11 16 13 13 18 18 16
40 42 59 58 50 47 39 32 29 29 27 23 18 15 11 12 9 10 6 5 6 3 4 7 6 5 3 7 9 3 18 11 3 11 3 14 15 12 16 16 17 20 10 15 19 19 8
39 42 59 52 47 42 34 32 31 27 22 19 17 15 14 13 12 9 3 1 3 1 5 2 7 7 6 8 10 7 15 14 13 6 7 17 10 6 9 8 9 11 12 15 14 2 8
39 52 56 55 42 38 38 35 31 25 18 17 16 15 15 13 10 6 3 4 1 3 6 5 6 5 4 6 5 7 7 6 3 7 7 10 7 6 9 5 5 2 4 7 4 5 12
50 53 59 49 43 41 37 34 28 23 21 19 17 16 14 10 8 8 10 2 3 4 4 5 3 3 2 9 5 10 9 6 8 4 4 4 7 4 6 1 7 11 5 5 8 4 5
53 61 51 48 49 42 36 34 24 23 22 19 18 16 11 7 6 11 7 2 1 1 3 4 2 2 3 9 3 5 5 6 1 2 3 4 5 15 17 16 3 2 9 15 10 8 7
60 55 57 53 45 38 34 25 28 26 22 22 22 16 9 7 10 10 4 2 3 4 2 3 3 3 4 5 4 5 2 6 8 6 4 3 12 8 12 10 10 10 5 3 1 4 7
61 55 49 41 37 36 26 26 24 24 24 24 20 7 7 9 11 4 3 3 6 3 4 2 1 3 5 5 3 2 5 10 9 5 4 3 5 8 9 6 4 3 1 4 3 3 4
48 42 38 38 35 31 28 27 26 26 28 25 9 3 9 10 3 2 3 4 3 2 1 3 2 2 2 5 4 4 7 5 9 3 5 1 4 7 14 23 16 13 6 4 3 4 6
35 33 34 36 32 28 27 27 25 26 26 18 11 7 5 8 3 0 1 2 4 5 4 4 3 5 3 3 3 4 4 7 9 1 3 2 3 6 12 2 8 4 2 2 6 2 2
34 34 31 30 29 28 27 26 25 26 24 14 7 3 4 4 3 4 3 2 3 8 3 6 3 2 2 2 4 5 10 8 5 10 12 7 6 10 10 10 7 6 12 11 4 2 4
31 27 25 26 26 26 25 24 24 25 20 11 4 3 5 2 0 5 4 2 2 2 3 5 3 4 3 4 8 6 4 5 7 8 5 4 7 12 19 21 15 14 13 13 16 7 5
30 26 23 22 24 24 24 23 24 22 16 6 5 4 5 6 11 5 3 2 4 2 3 2 3 6 6 5 8 11 10 2 6 2 3 4 5 9 19 20 11 5 12 9 18 15 10
25 25 24 26 24 23 23 22 24 20 15 5 7 10 8 8 4 4 3 5 5 6 4 7 6 3 10 12 16 23 24 21 16 6 4 5 4 5 13 14 11 11 11 14 22 20 7
24 24 27 24 21 20 20 21 21 17 13 14 13 10 5 2 3 4 5 5 3 5 6 4 7 4 9 13 26 23 20 21 18 16 14 8 8 2 2 2 6 6 8 18 24 17 13
24 23 23 22 19 16 18 21 21 16 13 14 13 6 4 3 1 5 6 4 8 6 2 5 7 14 19 12 3 5 2 3 4 8 6 11 4 4 2 6 10 3 10 9 7 10 12
20 21 25 21 17 18 20 21 19 16 13 11 10 8 7 9 3 3 4 6 2 3 5 3 16 6 8 1 2 3 3 3 4 4 7 6 7 2 2 4 4 5 18 16 7 5 12
27 27 23 20 18 19 19 19 18 16 13 10 11 8 7 6 4 6 3 2 3 2 1 4 11 8 12 3 2 3 3 7 5 5 6 4 3 7 5 4 4 13 19 4 5 1 9
24 21 20 18 18 20 17 17 18 15 13 9 10 8 6 4 4 4 3 2 4 0 2 6 4 6 5 5 3 3 3 3 1 4 4 6 4 4 3 4 3 27 5 5 6 10 11
20 18 17 18 19 18 16 15 16 13 11 8 10 8 6 4 4 2 3 2 3 4 1 4 2 3 4 3 3 2 2 3 4 3 7 5 5 2 5 3 5 12 14 12 12 13 11

GFSGBSN_850_spd_105.txt.gz
Wind_Speed
38 37 36 32 32 32 33 32 30 27 27 25 25 23 20 22 21 19 20 20 19 18 18 16 18 19 17 10 14 12 11 6 4 6 6 4 4 3 3 3 7 5 7 19 24 28 28
41 39 38 38 35 35 35 36 36 30 27 27 26 22 21 22 21 19 19 20 19 18 17 17 18 17 13 6 7 8 8 6 2 6 6 5 3 5 7 3 1 9 14 16 14 18 17
42 40 36 39 37 36 39 40 39 34 28 27 26 23 23 23 22 21 18 19 18 17 17 17 17 16 17 26 12 11 10 6 7 8 8 6 8 7 3 7 6 10 10 15 13 5 6
41 42 40 42 39 38 42 38 38 36 30 28 26 23 24 25 22 20 19 18 17 18 16 15 14 15 13 8 11 18 17 12 6 8 10 12 14 10 4 5 9 7 5 6 4 8 6
43 42 44 46 47 42 37 42 38 38 32 29 25 24 24 23 22 20 18 17 16 18 17 13 11 9 14 8 8 3 7 9 6 4 6 6 7 8 7 2 4 4 8 10 7 6 4
47 49 49 46 45 44 40 41 40 41 36 30 25 25 23 22 19 15 17 15 13 12 9 7 10 6 13 2 7 3 3 2 5 8 8 3 4 3 3 3 4 3 5 7 9 5 14
46 41 47 50 43 48 44 48 44 46 38 32 23 25 23 22 15 13 10 9 6 4 10 11 5 7 2 5 7 7 5 10 9 3 3 2 2 5 8 8 7 5 9 17 17 14 14
46 45 50 51 52 47 48 55 45 48 40 31 24 24 22 17 12 9 6 2 1 3 9 16 26 29 32 20 11 20 17 4 6 6 2 2 5 10 6 5 7 9 12 14 17 10 10
44 43 43 41 43 45 55 53 54 50 43 30 28 23 21 14 11 11 7 5 2 8 3 9 8 9 5 8 9 3 2 4 4 2 4 6 4 2 5 5 5 7 6 7 11 17 13
42 41 41 39 40 46 48 59 53 47 37 27 26 23 19 14 12 15 10 7 2 6 3 4 4 3 5 3 1 3 12 2 1 5 3 4 3 2 6 5 4 16 5 10 13 9 15
44 42 40 39 38 46 57 52 49 44 32 28 26 22 18 18 10 16 9 9 4 1 3 4 5 4 9 6 3 3 13 2 3 5 2 5 5 6 7 8 8 18 8 8 8 13 16
47 42 38 37 35 52 54 51 48 38 31 28 24 19 19 20 15 15 11 6 7 3 6 3 5 5 2 7 4 10 9 8 3 2 2 3 4 2 4 4 5 9 8 14 10 9 14
51 44 39 35 36 51 54 54 44 37 31 28 21 20 20 18 14 15 11 10 3 4 4 2 3 2 4 5 4 5 5 5 3 7 4 6 3 4 2 4 4 2 3 3 3 6 14
49 46 41 41 41 50 56 44 39 33 29 26 25 22 19 17 14 15 16 3 4 3 4 3 2 3 4 5 3 6 3 5 3 2 4 4 6 1 5 2 6 11 6 4 7 5 6
49 43 44 43 44 58 51 45 40 34 30 26 24 22 18 15 15 17 10 3 3 2 3 2 2 3 2 1 1 4 2 2 2 3 2 4 4 13 13 13 4 3 5 8 9 13 8
43 43 44 49 52 54 49 46 40 35 30 27 23 19 16 15 14 15 3 2 3 3 4 2 1 2 2 2 1 3 2 3 3 4 4 4 13 8 12 3 7 12 6 1 4 3 4
43 49 53 61 59 53 50 44 40 37 32 30 25 10 12 15 16 6 3 4 3 6 4 2 2 1 2 2 2 1 3 5 3 3 3 2 4 6 6 7 7 2 5 7 4 3 2
53 61 64 60 59 55 48 40 40 36 35 32 15 3 15 18 4 3 3 4 5 4 3 2 2 1 2 2 3 4 6 6 6 1 4 3 2 6 11 18 16 11 8 6 3 4 4
65 66 64 58 53 45 40 38 37 38 39 25 9 8 10 9 3 1 2 4 5 3 2 2 2 3 2 2 2 5 5 5 8 3 4 3 2 5 10 5 7 3 2 11 3 2 3
58 53 49 43 38 43 39 38 35 38 35 16 9 3 4 5 2 4 5 3 4 5 3 3 0 2 0 3 5 4 3 4 5 6 17 6 4 8 9 12 9 9 14 19 11 3 5
35 33 35 37 39 40 37 35 37 39 28 11 4 3 7 3 2 4 4 2 4 3 3 2 2 3 3 3 3 5 6 3 6 8 2 5 7 11 17 19 18 13 11 14 5 5 4
40 41 39 37 35 35 34 34 37 33 22 6 7 5 5 5 13 6 3 5 5 2 4 3 3 4 3 5 6 5 6 3 5 3 4 2 4 6 18 15 2 14 19 17 11 12 10
37 36 40 34 33 32 31 31 33 28 20 6 10 14 13 7 4 4 4 6 7 5 4 6 5 1 4 11 20 26 24 16 13 5 4 4 3 3 5 14 11 10 10 14 11 16 9
34 31 32 32 31 29 27 27 26 22 15 11 20 12 6 2 3 4 6 4 6 6 6 3 7 3 6 16 20 20 22 21 18 16 14 7 4 3 4 8 4 6 6 12 17 13 12
30 28 27 27 27 26 25 24 21 18 14 18 19 8 5 3 3 3 8 5 9 5 1 3 5 9 13 7 3 5 1 3 7 8 3 10 4 2 2 7 7 2 7 6 5 6 11
32 30 26 25 23 24 25 24 20 17 15 15 15 10 10 10 0 5 5 5 3 1 2 3 6 6 8 1 1 3 3 3 2 2 7 6 3 2 2 4 3 3 13 12 5 3 10
27 27 23 21 22 24 25 22 18 15 13 11 13 12 9 9 4 6 3 4 4 3 1 3 7 6 9 3 2 2 3 4 4 5 5 4 3 6 4 4 5 10 17 4 3 1 8
28 25 21 22 23 24 24 20 18 14 12 11 13 11 8 7 9 8 6 5 3 3 3 2 2 4 3 3 2 2 2 3 2 3 5 5 4 4 3 3 4 21 3 3 6 9 8
26 23 21 23 21 20 21 19 17 14 13 12 15 12 14 7 8 8 3 4 2 4 4 3 4 1 1 2 2 2 2 3 2 2 5 4 4 2 5 3 5 8 12 11 11 13 11

GFSGBSN_850_spd_108.txt.gz
Wind_Speed
38 38 36 35 34 33 32 30 28 28 27 29 24 23 25 24 21 20 20 21 20 19 17 19 20 20 17 11 12 13 12 8 4 1 3 3 4 3 2 2 5 5 4 7 13 21 21
37 37 38 39 37 36 35 34 32 30 30 31 28 27 25 26 23 20 19 21 21 19 17 17 19 19 15 7 7 8 8 8 6 1 2 2 2 2 3 3 2 2 7 12 9 18 19
40 40 40 38 39 37 36 35 34 32 31 34 28 26 26 26 23 21 21 20 21 20 18 17 18 18 18 24 13 14 11 11 7 6 4 3 2 2 1 6 4 6 6 5 6 1 4
44 41 41 39 41 38 34 34 36 35 34 29 27 28 27 26 24 22 20 20 19 19 18 16 17 16 13 11 11 16 15 11 7 9 9 7 8 6 3 5 8 5 1 1 1 8 6
45 45 43 43 44 41 40 40 42 35 35 34 32 30 28 25 24 21 19 19 19 18 17 15 13 10 13 8 7 3 10 15 10 7 7 4 4 4 3 3 5 4 4 2 4 4 5
46 46 45 46 42 43 40 40 40 41 32 36 33 33 29 24 21 19 16 16 14 14 10 5 10 6 10 1 5 6 9 4 6 10 4 4 3 3 3 3 4 4 5 4 2 5 7
40 43 43 46 47 41 44 43 40 38 35 35 36 36 30 23 17 16 13 10 7 5 10 10 4 6 4 2 6 7 7 3 3 5 5 1 3 5 9 8 5 4 5 11 6 6 6
42 41 41 44 42 45 47 43 44 38 38 39 41 38 27 21 13 13 11 6 5 2 8 14 24 26 27 18 8 14 12 7 5 4 3 3 4 9 3 3 5 6 8 8 8 5 4
40 40 39 39 41 41 41 41 44 41 41 43 39 37 26 19 12 13 12 10 7 4 3 8 10 10 7 9 9 3 4 5 4 6 5 5 4 4 4 2 4 4 5 5 14 5 8
37 40 38 38 38 40 38 38 42 41 47 45 45 31 22 11 8 13 12 10 6 3 3 4 4 2 5 5 3 4 3 3 1 5 4 4 1 2 3 4 5 7 8 9 10 8 9
39 40 40 39 38 38 38 40 45 41 46 49 39 30 22 19 7 18 11 10 6 1 3 3 4 4 4 2 4 7 11 3 4 3 4 3 3 5 3 4 2 4 6 8 7 6 8
36 40 42 43 40 37 37 33 40 51 51 45 36 29 23 20 18 17 9 8 4 1 7 2 3 3 5 8 4 6 4 6 3 2 1 3 2 4 7 5 5 8 5 7 7 2 9
42 40 46 46 42 38 36 37 46 46 49 44 34 25 20 22 20 16 12 9 2 4 2 2 2 3 5 4 3 5 4 4 2 4 2 4 4 1 5 2 4 5 6 3 4 1 6
46 44 46 48 44 39 37 39 44 53 48 37 32 26 24 21 17 19 15 3 6 3 3 1 3 6 4 4 2 2 2 2 3 5 1 1 3 1 3 3 4 2 6 3 5 2 5
47 48 51 50 47 44 39 40 52 52 43 35 28 24 22 20 18 21 16 2 4 2 4 5 3 4 3 1 2 2 1 2 4 4 2 3 4 5 13 12 6 1 5 7 6 10 6
53 53 48 51 48 44 42 53 56 47 41 33 30 24 20 22 20 21 3 4 3 2 4 2 3 3 4 3 1 2 2 4 2 2 7 2 6 8 9 3 6 8 3 2 2 3 5
51 48 45 52 47 48 52 54 51 47 40 36 30 14 19 19 19 13 3 5 3 4 4 2 2 3 3 4 3 3 3 2 3 2 3 1 3 5 3 6 5 2 3 5 4 4 3
39 39 52 50 47 56 52 53 53 46 37 37 18 4 22 23 5 3 3 5 5 5 4 3 3 3 4 4 4 4 5 5 7 4 1 2 2 5 7 10 12 7 4 3 1 2 4
35 46 50 51 59 59 64 58 53 49 48 31 11 11 16 19 4 3 2 3 3 3 2 2 3 2 2 4 2 5 2 4 3 3 3 3 0 4 7 4 0 3 1 3 5 6 5
45 48 55 64 67 65 61 56 50 48 42 26 11 4 4 8 2 4 5 4 4 5 3 3 3 3 3 3 3 2 3 2 2 5 8 2 5 7 6 9 9 8 12 12 14 4 3
54 62 72 70 66 61 59 49 53 50 40 21 6 5 10 5 3 4 3 3 5 4 3 3 1 3 4 2 3 4 2 3 4 4 2 7 6 8 15 17 13 5 6 14 5 4 3
68 67 65 65 57 48 45 49 51 49 35 8 8 7 6 5 15 7 3 6 5 4 5 3 3 5 5 5 5 4 2 3 6 3 5 3 2 1 13 12 4 4 10 8 11 9 10
47 49 47 42 39 46 48 49 52 42 24 5 9 16 12 3 4 5 5 6 5 7 2 4 5 3 4 10 15 19 18 12 7 3 3 3 3 2 2 18 8 5 6 9 9 15 5
38 40 42 44 46 43 41 45 43 33 19 10 20 15 8 2 4 4 6 4 6 5 7 2 8 3 2 10 15 10 14 12 13 16 13 5 4 3 4 6 3 3 5 11 15 11 10
40 41 40 39 38 38 39 41 36 27 14 15 22 11 7 3 4 6 9 6 9 5 1 3 5 4 9 3 2 3 1 2 7 8 5 11 6 3 3 3 4 6 4 3 5 6 8
37 38 36 34 34 34 33 31 27 20 15 17 18 12 12 8 1 13 7 6 4 2 1 3 1 3 3 2 1 2 2 2 2 1 3 4 3 1 3 3 3 2 8 6 7 2 6
29 31 32 31 31 30 29 26 23 20 17 16 15 16 16 10 5 12 4 5 6 3 2 2 3 3 5 2 2 2 1 2 2 4 4 4 3 3 3 4 4 6 13 7 2 3 5
27 27 28 29 30 28 26 24 20 17 14 14 16 16 13 9 9 9 8 7 6 4 3 1 2 3 3 3 2 1 1 1 1 2 4 4 3 3 3 3 3 15 2 1 7 9 11
25 25 27 28 28 26 23 20 17 14 14 13 18 14 22 11 14 14 8 5 6 5 6 3 3 2 2 3 1 1 2 1 2 0 4 2 2 1 4 3 4 8 12 10 7 14 12

GFSGBSN_850_spd_111.txt.gz
Wind_Speed
34 33 33 33 33 32 30 29 28 27 24 21 20 21 25 24 21 21 21 21 21 20 20 20 23 22 17 11 9 13 10 7 6 4 3 3 5 5 3 3 1 4 4 5 6 16 11
37 35 36 33 33 31 32 33 31 30 26 26 23 23 24 24 22 19 21 20 20 20 19 18 19 22 16 8 7 9 8 8 9 6 3 3 4 6 3 3 3 3 5 11 10 14 15
37 37 37 38 34 34 32 31 32 31 27 28 24 25 22 22 24 21 20 20 17 18 18 18 18 19 21 22 15 16 12 10 10 7 4 3 2 4 3 2 2 3 6 8 10 0 2
43 42 39 37 37 36 34 32 33 32 28 28 26 30 25 23 24 23 22 19 17 17 17 17 19 18 14 15 14 13 12 13 11 9 8 6 6 5 3 2 3 3 1 4 1 8 3
37 41 45 45 43 42 36 36 36 33 33 30 29 28 29 27 25 22 23 17 16 17 16 14 14 11 12 8 6 4 10 16 9 8 8 5 5 3 3 1 3 1 4 3 5 5 5
35 35 36 41 42 40 39 41 35 34 33 26 30 35 28 28 26 23 17 14 14 14 10 8 12 6 10 5 5 4 7 9 8 10 5 5 3 2 2 3 6 4 5 3 6 4 14
30 33 35 35 36 40 38 39 36 36 34 32 29 27 31 28 31 22 12 10 7 6 10 10 4 5 4 4 8 9 11 7 7 8 6 1 3 8 11 11 3 3 5 10 9 12 10
29 29 29 33 35 35 38 37 39 40 33 29 31 33 33 31 28 19 10 4 3 4 10 15 24 25 21 8 2 12 11 3 6 7 5 2 9 10 4 4 5 5 7 8 8 4 9
28 27 28 32 34 35 34 36 36 36 34 32 31 30 31 33 24 18 9 5 4 5 6 11 15 12 10 14 9 9 10 9 5 7 9 8 2 5 6 3 4 4 5 6 11 8 11
35 35 31 29 32 33 34 32 33 37 33 30 33 30 35 34 18 14 6 5 4 3 2 5 5 5 9 8 3 3 4 6 2 9 7 5 1 4 5 4 5 7 10 10 7 7 7
33 32 32 35 32 33 32 32 32 34 31 32 37 31 38 31 13 16 12 9 7 3 3 3 2 3 5 4 8 4 7 3 4 4 4 2 6 3 4 4 4 5 5 8 9 9 10
39 34 34 30 31 33 32 33 31 30 29 35 39 36 37 28 19 13 13 14 7 2 8 2 2 0 4 6 3 3 3 6 3 2 3 0 2 3 3 2 2 3 5 7 8 5 7
44 40 36 33 30 32 34 31 30 28 30 38 41 37 34 25 23 22 17 17 3 5 2 2 2 2 5 2 3 3 3 3 2 2 2 2 3 1 1 3 3 3 4 3 4 5 6
48 46 39 35 32 35 33 32 31 30 32 46 41 36 26 22 20 24 24 2 7 5 4 2 4 4 4 1 2 3 2 3 3 4 2 3 3 5 1 2 1 3 3 4 6 3 4
49 49 45 39 34 36 33 34 36 31 40 36 40 28 27 23 25 25 19 5 6 4 4 9 3 3 2 1 4 2 1 4 5 5 4 4 5 3 6 2 4 3 7 6 12 13 9
53 51 49 43 36 40 32 36 40 40 40 47 41 29 30 31 27 24 2 8 4 2 3 2 5 3 6 5 4 3 4 4 4 4 3 1 4 7 6 3 7 13 1 3 4 3 5
57 55 50 44 38 39 30 44 44 48 41 46 40 14 24 24 26 19 5 5 3 5 4 3 4 3 4 4 5 5 3 1 2 4 3 3 4 2 4 6 4 3 4 6 4 6 4
56 55 51 44 41 43 38 54 48 45 43 44 19 4 33 29 9 5 5 6 6 6 4 2 3 4 5 7 6 5 5 2 5 6 3 2 2 4 8 8 7 8 4 3 2 2 3
60 55 47 43 40 42 56 60 54 51 54 41 11 10 29 31 5 6 3 3 3 4 4 4 3 3 2 5 3 5 2 2 5 5 4 5 2 4 2 4 2 3 4 4 6 7 12
57 53 45 41 41 54 67 61 58 51 54 36 13 5 7 18 8 12 6 5 5 4 3 4 4 4 4 3 1 2 4 1 1 6 8 4 4 5 6 6 5 5 7 11 8 6 8
55 52 45 46 51 69 67 64 58 62 52 36 10 6 15 12 7 5 4 6 7 5 3 5 2 4 5 4 4 4 4 2 3 3 4 6 5 9 14 16 12 8 4 3 7 16 7
43 47 51 54 69 68 67 54 64 60 46 26 11 9 14 20 13 7 6 7 9 5 6 4 4 9 6 5 6 7 6 4 4 3 6 5 3 1 5 11 6 7 7 2 8 7 10
46 53 63 78 76 76 70 70 66 51 39 17 16 24 21 16 7 7 7 8 7 8 1 9 9 6 7 11 12 13 11 7 5 4 5 3 2 1 4 14 10 4 5 4 3 11 2
70 77 75 76 72 72 67 67 56 42 30 19 25 23 11 6 9 9 10 6 12 5 8 7 11 4 4 3 8 8 9 12 13 14 11 3 5 2 2 5 2 4 8 9 11 8 8
64 68 66 68 59 58 59 54 49 33 18 24 24 17 9 4 7 8 13 8 12 8 3 6 6 5 3 0 2 2 2 4 8 9 10 11 5 3 3 2 3 4 1 1 3 4 5
45 46 45 44 52 56 58 55 40 22 20 25 17 14 12 8 3 17 9 14 5 3 3 3 6 3 3 2 2 3 2 2 3 4 5 2 10 5 3 3 5 3 2 2 3 1 4
47 48 49 48 48 49 49 39 29 19 20 19 17 18 21 11 5 17 5 7 8 5 3 4 4 2 2 2 2 1 2 1 2 2 1 1 2 6 3 2 2 3 7 2 3 3 6
40 41 41 41 40 38 34 29 24 19 16 15 19 19 14 10 10 12 12 11 8 6 4 6 4 1 1 2 1 1 1 1 1 2 1 2 1 1 1 2 4 9 2 3 8 11 13
36 38 38 38 36 34 30 26 23 20 19 17 20 17 22 13 17 16 13 10 7 8 11 4 3 3 4 3 2 2 1 1 2 2 2 1 2 2 3 2 4 7 11 9 8 17 13

GFSGBSN_850_spd_114.txt.gz
Wind_Speed
30 28 29 27 29 29 29 27 27 25 24 21 19 19 19 18 21 18 20 20 18 18 19 18 19 19 18 8 9 14 12 7 6 6 6 7 9 7 9 5 7 13 11 11 14 14 15
37 32 36 32 33 31 29 28 27 26 27 24 21 21 20 19 20 19 18 18 18 19 17 17 18 17 12 12 9 8 8 8 10 7 7 7 7 7 6 6 9 2 7 12 13 17 18
39 39 36 30 33 32 31 29 27 28 24 25 23 23 20 20 20 18 18 18 19 19 17 17 18 17 17 18 15 17 14 10 9 8 7 5 5 6 2 5 6 8 12 13 15 13 8
35 38 38 40 41 35 36 33 32 27 26 27 26 22 23 23 23 22 18 17 19 21 18 16 16 14 12 17 15 14 10 10 13 12 8 5 5 6 7 3 5 9 7 10 6 4 5
28 30 35 37 39 41 41 35 30 29 26 29 26 27 24 25 24 20 18 18 20 20 16 15 13 7 11 9 6 5 9 9 10 7 7 6 6 8 6 10 10 7 13 8 7 3 6
27 27 28 31 34 34 38 41 41 38 30 27 25 25 26 26 25 22 18 15 17 16 14 10 9 6 10 3 2 3 6 9 10 7 6 9 8 10 8 10 12 12 9 10 11 5 13
25 24 25 26 29 32 31 32 37 32 31 25 28 23 22 28 22 21 16 10 4 4 5 8 4 5 4 3 6 6 7 8 9 12 13 11 10 14 14 11 12 11 13 16 14 12 15
25 24 23 23 24 27 28 26 27 31 30 31 29 25 24 23 23 18 15 6 7 4 10 16 19 22 19 11 5 11 12 10 12 14 12 8 16 14 8 10 12 13 15 16 12 6 12
25 25 26 22 24 22 25 26 27 26 28 25 29 25 26 22 20 19 14 10 7 3 6 9 16 13 12 15 13 14 13 13 11 15 15 18 9 1 9 11 12 13 14 13 14 15 17
27 26 26 29 28 24 24 27 27 26 25 27 25 27 27 28 19 17 12 11 8 6 2 5 5 4 7 7 7 6 9 14 11 15 17 13 14 11 12 13 10 15 9 10 11 11 12
33 29 28 27 28 31 27 25 26 26 25 24 28 29 25 24 16 18 13 14 10 8 4 5 5 7 8 9 12 4 5 8 10 8 7 4 7 9 12 12 7 11 5 10 12 15 16
38 35 32 30 28 27 26 29 27 26 24 25 26 30 24 32 23 14 18 18 13 2 8 6 7 9 10 6 5 4 5 3 1 5 7 9 2 6 9 4 8 8 12 16 14 12 12
39 39 37 35 32 29 26 25 26 25 26 27 28 28 34 30 26 21 29 21 5 8 5 7 7 9 13 7 6 5 8 8 7 7 12 9 13 4 6 9 7 10 8 6 8 8 10
40 41 37 37 36 32 27 26 25 26 28 30 26 30 39 29 23 34 30 4 9 3 6 3 5 8 10 7 4 4 4 8 5 8 8 9 8 10 6 10 5 8 7 7 10 9 10
44 43 43 40 38 35 29 27 27 26 29 39 35 41 33 24 32 33 25 4 5 9 9 10 9 10 7 5 3 6 6 8 4 8 7 4 6 4 4 4 3 5 9 11 16 16 13
46 44 42 42 38 36 31 28 23 26 40 44 41 37 27 32 33 30 5 7 8 4 5 12 15 10 10 10 9 7 8 6 6 6 2 1 5 7 5 7 12 13 2 4 8 5 8
47 48 45 43 42 39 34 28 25 34 44 46 38 17 30 35 35 17 5 8 7 7 7 8 9 6 7 7 9 7 3 5 4 8 6 4 4 3 3 8 10 7 11 10 7 8 4
49 49 49 46 45 40 36 30 31 46 51 47 29 4 39 39 9 6 9 9 9 13 9 3 3 3 8 9 7 7 6 3 8 10 5 5 4 7 9 4 9 12 10 12 9 6 6
51 50 48 47 47 42 41 34 39 57 57 42 14 9 34 33 6 11 9 10 11 12 12 8 7 4 3 8 6 8 3 3 9 9 6 7 6 4 6 4 7 4 9 10 7 8 14
55 51 51 48 48 45 44 41 52 61 53 39 12 6 8 20 10 16 15 18 13 9 9 6 5 6 8 7 6 5 8 6 6 7 4 5 6 9 8 7 3 5 6 9 10 7 12
57 55 54 52 50 50 47 45 62 62 61 46 10 7 18 12 15 15 18 18 16 10 6 9 4 9 10 7 9 7 9 5 5 7 7 3 7 9 14 16 13 12 12 11 7 9 9
44 53 56 50 49 51 49 50 66 69 66 34 13 9 26 22 26 17 20 17 20 8 9 9 9 13 11 8 9 9 10 7 5 9 10 7 7 2 10 14 15 5 4 8 4 3 5
65 63 66 59 53 54 54 62 76 78 68 17 13 19 25 22 20 17 18 17 15 11 6 8 13 9 11 10 6 3 8 4 3 6 10 5 6 3 2 1 9 6 2 3 4 5 2
62 62 49 55 54 50 59 75 81 76 56 29 28 29 10 13 17 18 23 13 16 18 7 10 15 9 6 9 5 3 7 11 13 13 12 3 6 3 2 7 5 5 5 8 8 6 8
40 49 52 51 44 70 72 79 66 62 39 39 37 19 10 9 14 17 19 17 19 15 9 9 10 6 11 5 3 4 4 4 9 14 15 10 6 3 4 9 4 8 6 4 1 4 1
44 50 51 68 79 80 71 65 61 40 36 40 33 23 17 12 15 28 21 27 15 9 8 6 7 8 6 3 4 5 5 1 6 6 10 9 12 6 6 4 4 6 5 3 1 4 4
70 76 77 76 74 69 63 50 46 45 42 37 31 26 29 12 8 29 14 17 12 12 6 9 10 7 7 5 5 5 3 1 4 5 5 4 5 13 10 4 4 4 1 5 4 4 6
66 68 70 71 67 56 50 46 45 40 37 30 28 26 23 9 12 9 14 12 12 14 8 12 7 4 6 6 4 3 2 2 2 1 1 3 3 4 3 3 4 4 5 4 8 11 12
52 52 54 53 53 49 44 40 37 30 23 23 26 18 19 18 12 19 18 13 10 9 12 12 1 8 5 3 2 3 3 2 3 3 2 3 2 1 4 4 4 7 12 14 12 17 15

GFSGBSN_850_spd_117.txt.gz
Wind_Speed
26 27 30 29 30 31 29 27 26 26 23 21 22 21 19 18 19 17 18 17 17 17 17 19 17 17 19 9 11 15 14 9 6 4 7 8 10 12 15 13 12 14 17 21 17 18 18
37 37 33 26 32 30 30 28 27 25 24 23 23 23 22 21 20 19 16 17 19 18 17 19 19 15 9 10 7 12 5 6 7 7 8 9 11 11 14 18 16 18 15 18 18 19 19
32 33 33 38 37 35 37 32 27 27 24 22 20 21 23 24 22 22 19 16 18 18 19 20 19 16 11 15 7 8 9 8 9 10 10 8 8 10 7 12 11 13 18 18 20 20 16
28 29 31 34 35 35 34 31 28 28 23 26 23 23 25 22 24 23 19 18 17 18 20 19 16 9 10 11 10 12 11 11 11 11 11 7 8 11 14 14 14 18 19 18 16 4 10
27 26 26 28 30 34 34 36 37 37 30 26 26 20 23 22 24 21 20 17 17 17 18 17 10 7 11 6 3 3 8 12 11 11 11 10 11 16 13 11 15 16 17 19 14 14 7
27 27 26 26 25 27 30 31 33 34 32 29 23 21 20 20 20 20 19 17 16 16 12 7 8 8 8 3 4 5 6 10 10 12 12 14 12 13 13 12 15 18 17 16 12 11 13
24 25 25 24 23 24 25 28 28 29 30 31 28 22 22 19 17 15 15 11 5 5 11 12 10 15 10 5 4 5 6 8 13 16 16 17 14 15 17 17 17 16 18 21 21 17 20
20 22 21 22 21 21 21 23 28 24 23 23 24 23 23 21 15 14 13 7 7 6 12 19 23 23 21 11 9 12 10 11 16 16 18 15 17 17 18 14 13 16 20 22 22 20 11
23 21 21 22 23 20 20 19 20 22 20 18 19 25 23 21 16 19 15 11 9 5 9 18 23 22 18 18 17 18 17 18 17 16 18 20 16 7 7 15 15 17 19 20 21 19 21
28 27 24 22 22 24 20 20 19 24 19 18 18 21 22 18 19 19 16 10 6 1 5 13 8 7 11 10 9 21 16 18 15 18 16 18 18 16 19 16 15 20 14 17 14 15 17
29 31 31 27 23 23 25 23 20 21 22 20 21 25 21 20 19 19 10 12 8 3 6 6 8 8 9 14 8 9 11 16 20 18 11 17 11 11 15 17 14 16 12 10 16 18 20
30 31 32 32 28 25 23 22 23 22 22 22 24 24 22 25 26 16 12 16 14 3 11 7 8 9 12 15 8 7 10 10 7 13 14 16 3 8 12 11 8 12 11 16 18 17 17
37 33 32 34 32 30 26 23 21 21 23 22 24 24 24 26 30 21 19 22 3 7 3 8 7 11 14 8 10 10 11 13 9 10 14 18 17 13 5 14 12 11 13 11 13 12 16
36 36 37 34 34 34 30 26 23 20 22 23 24 25 27 31 30 28 29 3 8 11 22 2 3 10 15 9 10 10 9 13 10 10 9 10 12 15 11 14 15 15 14 12 19 15 17
41 40 38 38 34 34 30 29 25 20 20 18 29 42 37 35 30 33 23 5 8 16 15 8 9 12 13 8 5 11 15 14 12 12 8 8 12 3 3 8 6 7 14 12 17 18 16
44 43 40 37 38 34 32 28 27 21 20 27 44 38 32 33 37 41 3 8 13 10 6 14 17 15 15 16 11 9 10 5 8 5 3 4 8 11 8 6 14 14 10 6 7 6 12
49 45 45 42 37 35 31 30 28 22 24 38 32 15 25 46 42 15 5 12 14 11 13 12 16 14 14 11 14 14 6 6 5 9 7 7 7 6 4 10 15 12 12 13 13 11 9
53 49 48 45 41 38 34 31 31 26 30 44 26 4 40 47 9 5 12 11 11 13 14 8 8 12 10 10 11 12 10 6 9 6 6 9 5 11 16 11 9 14 16 15 11 13 7
53 51 47 45 41 39 38 34 35 31 44 43 18 9 40 32 7 14 13 17 11 14 17 12 10 9 7 10 8 10 4 5 6 10 6 6 7 7 8 7 10 9 14 14 9 9 15
54 51 50 48 45 43 41 39 40 38 53 42 13 5 9 17 13 14 20 16 17 19 14 13 10 9 10 8 9 5 8 6 9 13 3 2 8 9 11 10 5 5 7 9 12 11 14
51 52 52 49 46 47 44 44 46 44 60 44 12 7 18 11 13 13 17 15 21 12 15 17 10 16 13 11 13 11 9 8 7 10 7 8 10 10 15 16 15 13 12 12 11 15 10
58 57 55 53 50 50 47 49 50 50 63 35 16 9 24 14 28 19 19 16 23 19 17 20 12 14 12 14 11 7 13 11 8 12 13 12 7 7 11 16 15 15 15 13 9 8 5
61 60 58 55 53 52 53 51 54 53 71 28 31 25 27 19 22 17 19 20 23 17 15 18 14 12 13 12 7 4 8 14 6 9 13 10 5 6 7 3 4 7 9 8 3 3 5
61 61 62 61 58 54 55 55 55 58 74 36 32 25 13 7 17 22 23 22 20 18 8 10 15 14 4 8 6 4 6 10 10 10 11 6 7 6 5 4 8 4 4 4 5 4 7
63 58 58 59 60 59 57 59 58 62 81 43 35 35 10 6 20 23 21 20 20 16 9 12 12 8 13 13 6 6 5 4 12 16 14 8 5 4 4 9 6 8 7 7 7 6 6
76 67 59 62 53 54 56 59 60 59 81 48 38 28 20 10 17 30 23 27 14 14 11 13 10 12 13 6 4 6 7 8 7 6 16 12 12 9 5 7 3 9 11 6 6 6 11
36 67 70 58 58 52 47 55 50 69 71 45 40 22 17 8 13 30 21 23 26 18 10 18 15 10 11 6 6 8 7 4 6 9 8 4 4 14 12 8 4 6 7 6 5 5 12
49 59 67 57 47 47 53 53 66 68 51 45 36 23 20 10 22 26 26 31 26 19 10 19 10 8 9 7 6 5 3 2 3 2 5 8 5 7 10 6 5 3 7 4 6 12 14
57 55 53 52 53 63 68 70 67 57 47 42 31 26 28 20 23 21 20 16 12 14 14 26 3 21 9 8 4 2 2 2 3 3 4 4 3 4 5 4 5 4 9 12 12 16 16

GFSGBSN_850_spd_120.txt.gz
Wind_Speed
33 31 27 29 31 30 31 30 27 26 25 25 23 24 22 20 20 19 17 14 15 16 16 16 18 21 19 8 15 11 10 12 7 3 5 7 10 13 14 15 18 14 16 19 21 22 15
42 37 38 35 29 25 30 30 27 26 26 25 26 27 25 22 22 21 19 16 15 17 16 17 18 19 13 7 6 8 5 6 4 7 6 9 10 12 15 18 16 22 24 21 21 22 24
37 43 41 40 36 32 32 27 27 28 25 26 26 29 23 21 23 22 21 18 15 16 16 16 17 17 12 17 7 9 10 9 8 8 10 9 10 9 11 13 13 14 17 18 21 25 22
25 27 28 27 30 33 34 36 38 33 30 26 24 22 22 21 22 23 21 21 15 14 14 16 17 12 10 11 12 12 13 13 10 10 11 11 8 12 16 17 21 19 19 19 19 18 4
21 21 22 24 24 25 28 31 31 31 32 30 26 21 21 20 20 21 20 19 14 15 14 16 12 6 11 8 8 4 8 12 10 9 10 10 9 15 16 14 14 15 17 20 19 9 6
24 24 25 25 24 23 23 24 28 30 31 31 31 27 22 19 14 17 14 15 13 14 12 9 9 8 10 2 3 5 8 9 11 9 10 12 9 12 12 11 14 17 18 20 19 11 9
20 21 22 23 22 21 20 20 22 24 26 26 26 25 28 20 16 12 11 10 5 4 9 12 6 12 18 17 6 7 8 7 11 13 13 16 11 14 17 17 20 20 21 21 19 19 19
26 21 18 20 19 20 19 18 19 20 23 21 19 21 23 20 17 13 11 6 4 5 10 18 26 28 26 21 18 16 12 9 14 15 16 15 17 19 17 17 19 21 19 20 21 21 19
22 24 21 18 20 20 19 19 18 18 19 20 16 15 17 19 19 19 14 12 6 5 9 19 30 34 22 20 28 25 20 17 16 16 16 19 15 16 11 12 15 20 18 19 22 21 20
25 23 25 23 22 21 21 20 17 17 16 17 16 15 17 18 19 21 17 10 4 1 6 15 13 4 15 11 11 20 23 20 15 18 18 17 18 18 20 20 17 20 17 21 22 16 15
26 24 24 28 27 22 21 22 19 18 17 20 17 18 17 17 21 18 13 12 10 4 5 2 7 8 9 15 1 4 17 13 17 18 15 15 12 14 16 15 16 21 15 14 16 15 16
28 29 26 27 28 27 22 22 22 22 19 19 22 20 16 21 22 12 11 18 12 4 9 7 9 9 11 18 10 7 8 10 10 16 19 23 23 14 12 12 13 10 11 15 15 14 14
31 30 30 29 25 28 28 24 22 21 22 20 22 22 22 25 27 17 17 24 3 6 4 10 8 12 14 12 15 9 11 12 9 7 12 16 19 17 17 12 13 13 9 8 8 10 14
32 32 31 32 32 28 28 29 25 22 21 20 20 20 26 25 26 24 31 3 6 14 22 2 3 11 14 13 12 11 12 13 16 15 12 10 11 8 5 13 11 15 12 8 16 14 17
36 33 33 32 31 30 30 28 28 24 21 19 19 28 34 32 28 29 21 3 10 15 17 16 9 11 14 16 7 12 13 15 14 12 13 8 13 5 5 2 4 7 11 14 17 14 13
37 38 36 35 34 31 30 29 27 26 21 20 25 36 36 34 30 40 7 7 16 20 7 14 18 12 13 16 12 8 11 7 15 4 4 3 12 12 16 15 9 11 11 10 5 8 13
42 41 40 38 36 34 31 28 27 26 22 21 32 19 16 30 37 18 6 13 16 23 18 12 15 16 14 15 15 14 9 4 3 4 4 5 9 12 14 12 14 11 12 11 11 10 10
48 47 45 42 38 36 34 29 28 28 24 26 25 4 18 32 6 2 10 17 22 19 26 13 10 13 16 17 15 12 13 7 10 3 6 5 4 10 17 15 15 16 15 15 9 10 11
50 51 49 46 44 41 38 36 31 33 34 36 18 8 28 37 7 6 11 21 22 17 15 13 15 12 14 11 10 12 12 10 7 4 3 3 4 6 6 11 13 14 13 14 10 8 16
52 52 50 49 46 45 41 41 36 37 37 40 16 4 8 17 7 12 14 19 24 20 18 17 13 13 11 10 8 5 11 6 6 6 4 3 5 7 10 6 9 6 11 11 12 9 12
43 46 52 48 49 46 44 42 41 42 40 44 17 7 15 9 15 13 8 10 19 20 19 18 15 15 13 9 14 12 11 8 5 6 4 4 7 7 11 17 17 16 15 13 9 12 9
51 47 46 47 47 48 46 45 44 45 44 39 16 10 22 8 27 18 10 14 22 21 15 18 16 14 13 15 13 7 12 10 6 9 11 9 7 4 10 17 17 17 16 17 12 8 10
58 56 51 48 47 49 49 49 47 49 49 27 32 33 23 14 18 14 19 14 19 16 17 21 16 10 16 11 8 12 3 8 9 12 11 9 5 2 6 10 4 10 8 11 8 7 8
73 67 62 55 52 50 50 50 50 52 53 36 38 27 12 10 15 20 22 22 20 17 10 17 16 12 4 8 7 5 2 5 10 8 12 4 4 5 7 6 9 2 2 3 6 3 6
63 72 66 63 57 55 51 52 53 54 56 56 29 35 15 11 14 21 24 22 27 15 13 10 11 14 13 10 4 4 4 5 13 13 11 7 6 4 4 7 1 5 5 7 7 6 9
47 60 64 66 62 60 58 55 54 56 55 57 28 40 24 8 14 26 23 28 14 15 13 14 13 14 18 5 4 8 7 8 7 5 17 12 9 6 6 6 3 5 9 10 6 5 13
49 57 58 63 64 61 59 56 57 57 56 58 28 41 28 10 11 27 20 18 25 19 10 15 15 9 11 6 6 6 10 5 7 10 9 9 7 14 10 7 1 7 8 5 4 4 18
64 57 59 60 62 60 58 58 58 56 55 64 31 39 27 10 4 23 26 20 21 19 10 17 9 8 8 7 7 6 6 3 3 5 12 12 8 7 8 6 9 5 7 4 5 13 15
60 63 52 56 56 56 56 56 54 56 53 57 36 32 26 13 6 9 17 26 18 26 18 29 9 20 8 7 6 3 4 3 2 3 8 5 1 2 2 3 4 2 5 9 11 16 17

GFSGBSN_850_spd_123.txt.gz
Wind_Speed
33 33 32 30 29 28 31 28 27 27 26 25 23 22 21 21 20 20 19 17 16 17 15 17 18 19 20 12 9 12 12 15 10 5 3 8 8 11 5 5 14 6 6 18 25 18 17
36 37 34 32 34 32 25 23 27 24 26 27 23 20 21 24 23 22 21 18 17 17 18 18 17 17 16 6 6 10 13 11 3 3 11 9 7 10 13 7 5 11 19 19 24 21 22
31 35 38 37 36 36 35 33 28 21 18 18 15 16 19 20 19 22 24 19 19 17 17 16 17 19 18 18 10 8 12 12 9 10 13 12 12 8 9 8 11 15 10 10 15 22 13
23 25 23 23 28 32 28 33 31 30 28 25 26 24 23 19 17 19 22 20 19 16 16 16 16 18 13 17 14 10 12 16 11 12 11 13 10 8 8 10 11 7 6 4 12 16 27
19 19 21 23 23 23 23 23 26 28 30 33 33 30 29 19 16 15 16 19 15 13 15 15 14 8 15 7 9 2 5 8 5 10 9 9 9 5 8 5 5 6 5 9 11 13 4
17 17 19 21 22 22 22 21 22 24 27 27 27 27 27 23 18 14 14 13 11 11 12 11 7 6 11 4 4 7 7 8 11 9 9 10 6 3 2 3 4 5 7 9 9 5 6
21 19 18 15 20 20 20 18 20 21 22 24 24 25 25 22 17 14 14 9 8 3 10 13 5 14 11 12 11 14 6 9 9 11 6 10 3 7 11 12 13 13 11 10 8 8 13
19 20 21 18 15 17 17 17 17 18 17 19 20 19 19 18 18 16 15 8 6 2 9 18 25 32 34 24 19 18 8 10 11 7 8 6 10 15 14 14 13 8 8 10 11 8 8
21 20 19 22 16 15 17 17 18 17 15 15 18 17 17 18 16 18 17 9 4 3 5 14 32 27 28 27 26 25 20 19 9 6 8 11 10 11 13 12 15 7 6 8 14 6 5
23 21 20 19 19 20 17 18 17 15 15 13 15 15 15 16 19 19 19 9 7 1 3 7 10 7 23 23 8 18 25 21 7 11 11 11 15 15 10 9 9 5 6 11 10 7 5
26 23 21 20 22 21 20 18 18 17 15 14 16 17 15 17 13 22 15 13 12 6 3 4 4 8 11 16 3 3 9 19 10 10 7 8 5 5 6 5 5 4 6 5 5 7 6
27 26 24 22 20 23 23 21 19 19 17 15 16 17 15 19 19 16 11 16 13 2 8 4 6 6 6 9 3 5 3 4 5 3 9 13 19 9 8 3 2 6 4 7 6 1 6
31 28 27 26 24 21 19 24 22 19 18 18 16 15 19 20 21 15 21 22 3 5 6 6 6 8 10 8 7 5 5 4 4 3 5 8 14 13 15 5 3 2 3 3 4 1 8
32 30 28 26 25 23 20 20 24 21 18 16 17 15 18 23 21 22 30 4 6 9 14 8 6 12 10 6 9 10 7 6 10 9 4 3 7 5 6 7 8 6 5 3 4 3 9
31 30 31 29 27 26 24 24 22 25 20 15 12 17 26 26 24 25 21 5 9 9 6 12 13 6 8 11 6 8 10 7 7 14 8 4 5 4 7 4 4 1 2 1 2 9 9
35 33 29 28 29 27 25 24 26 23 23 16 15 23 29 27 26 35 9 12 9 11 15 10 5 9 6 10 8 6 6 6 14 3 6 1 3 3 2 2 3 6 3 3 3 4 7
35 34 33 31 28 27 28 27 23 24 24 18 17 12 17 29 31 14 4 9 9 20 18 9 10 9 10 8 11 8 8 1 3 4 7 3 4 3 5 1 4 3 2 4 6 4 3
37 37 36 34 31 30 28 27 25 23 23 21 20 5 13 26 6 2 8 6 13 16 20 12 5 3 5 5 4 3 10 2 9 9 6 2 2 2 5 9 13 6 6 6 4 6 5
39 39 39 38 38 36 32 29 26 27 30 28 17 9 13 32 8 5 6 11 10 7 14 2 8 5 3 4 3 4 7 5 12 5 5 2 1 2 7 5 4 3 3 6 3 2 9
40 40 39 40 39 39 37 34 34 31 33 32 15 4 7 13 7 9 10 15 15 16 18 8 8 10 3 5 4 2 6 1 5 8 8 6 2 6 6 3 5 6 10 6 3 3 3
43 41 42 41 40 40 39 37 38 38 36 38 21 6 12 6 13 10 11 8 18 13 21 17 14 8 6 5 1 4 6 5 5 8 4 4 3 1 4 8 11 12 12 12 7 9 4
47 46 45 43 40 41 43 40 40 40 41 42 19 7 15 8 17 14 7 11 15 18 8 12 8 8 8 6 6 3 6 4 5 5 4 1 2 3 5 11 14 17 14 13 10 9 2
50 49 48 43 41 38 42 43 44 45 46 34 23 34 23 12 11 13 18 18 13 8 11 16 10 7 6 6 5 10 8 4 11 8 6 5 4 2 5 7 6 8 13 12 8 6 4
55 53 51 49 44 40 41 44 46 47 53 46 37 36 10 5 13 19 18 19 17 15 9 11 17 7 7 12 12 8 8 2 13 9 15 5 5 2 3 5 4 5 3 4 4 5 10
60 59 57 55 52 47 45 45 48 49 55 56 25 33 18 5 13 15 17 21 23 19 3 2 4 14 18 13 4 4 2 2 4 6 8 6 4 2 2 3 3 1 2 3 3 5 9
70 69 66 61 56 50 48 47 49 52 55 51 56 30 28 4 6 22 19 18 12 10 5 3 10 14 18 4 3 6 5 5 5 4 11 7 5 4 2 3 3 3 4 5 0 4 14
58 61 69 70 67 59 54 49 50 53 55 52 46 32 22 8 15 17 14 16 19 10 6 7 8 6 16 3 4 3 4 7 5 7 8 6 5 12 6 4 4 5 8 11 1 4 21
65 60 56 52 60 68 60 54 52 53 54 51 49 38 27 14 1 14 16 19 20 24 9 19 7 1 3 5 4 4 3 4 4 5 7 8 6 4 4 4 7 5 4 4 2 9 20
48 61 54 55 58 66 63 57 54 54 52 47 39 40 35 16 1 2 5 11 25 32 22 24 8 12 9 4 3 3 1 1 3 2 6 4 5 4 4 2 2 4 4 5 9 18 17

GFSGBSN_850_spd_126.txt.gz
Wind_Speed
30 29 28 23 24 28 28 27 27 26 22 23 23 22 21 19 18 19 18 18 17 16 17 18 19 19 19 10 7 11 13 14 10 4 2 6 8 6 3 7 11 5 3 14 15 14 17
31 30 30 32 32 32 27 23 20 26 29 25 25 25 22 19 16 17 17 18 20 20 17 18 19 18 17 7 8 10 14 13 6 4 2 8 8 16 10 5 1 8 16 15 17 24 17
38 39 35 32 35 34 34 34 30 31 22 21 19 21 16 12 13 14 10 13 14 18 20 18 17 19 19 16 9 14 13 10 13 9 12 8 11 9 8 7 9 12 6 8 17 12 9
27 27 27 27 28 33 35 33 29 28 31 29 18 19 20 17 15 15 20 19 18 16 16 17 17 18 14 15 12 12 12 6 9 9 14 12 10 11 6 8 10 6 3 1 6 1 9
22 16 19 20 23 24 24 26 28 26 26 24 27 26 21 22 23 19 22 15 15 15 15 16 14 11 14 9 7 4 6 8 6 4 7 6 7 4 5 2 4 3 3 4 7 5 2
16 16 16 17 18 20 20 20 20 20 22 26 25 26 29 25 22 19 17 14 13 13 14 14 13 6 14 10 5 6 7 5 6 7 7 8 3 1 2 3 4 4 3 3 5 6 3
17 17 16 16 18 20 20 19 19 18 18 18 21 23 23 22 20 20 15 10 7 9 16 17 5 8 5 7 4 8 7 9 10 6 5 4 3 8 10 9 7 6 9 9 6 6 6
19 18 19 17 14 14 16 17 18 18 17 17 17 19 19 18 20 18 14 12 8 5 11 19 26 32 28 23 16 22 11 8 10 6 4 2 6 13 9 10 8 10 13 11 5 4 5
22 21 20 17 19 16 12 14 12 16 15 14 15 16 15 16 17 19 20 17 8 3 6 15 32 28 34 28 26 31 21 18 7 7 6 8 8 5 9 11 12 12 10 5 3 4 4
25 25 23 20 18 18 15 13 14 11 13 12 12 14 14 14 16 21 21 17 8 2 3 7 7 10 17 13 7 18 22 20 7 13 4 7 14 16 15 10 7 4 3 0 3 5 3
29 28 25 22 20 17 19 19 16 16 13 12 11 13 16 17 11 23 21 16 10 5 3 4 6 6 7 13 6 2 17 22 14 6 6 8 3 1 3 5 2 3 1 3 2 2 4
31 28 27 26 22 20 19 19 18 17 17 15 12 16 19 18 18 10 18 22 15 4 9 4 4 6 7 6 4 7 5 5 6 4 4 9 6 4 6 4 4 4 4 6 3 3 4
30 33 29 27 26 23 19 20 22 19 18 18 15 16 18 19 18 19 19 21 4 5 4 6 4 6 4 5 4 4 5 4 5 4 3 4 6 10 8 5 4 3 5 3 4 1 6
32 31 32 30 28 26 24 19 19 22 19 18 18 18 19 19 19 22 26 3 7 8 8 4 5 5 7 6 6 8 6 5 5 3 2 3 5 2 2 3 7 5 8 5 6 3 4
37 34 31 30 30 27 25 22 20 21 21 17 17 20 24 22 24 27 24 5 8 6 5 4 2 4 5 6 6 5 9 8 8 9 8 5 4 1 4 2 4 1 1 4 1 0 3
37 40 35 30 30 29 27 25 22 21 21 19 18 18 24 25 22 32 6 10 6 5 5 4 2 7 10 7 7 9 9 6 6 9 10 4 2 3 1 4 3 5 4 1 2 4 8
39 38 38 34 29 26 27 26 24 24 22 20 18 11 15 24 22 17 6 6 10 13 9 1 1 4 3 5 7 6 9 2 6 4 9 4 4 3 2 3 4 2 1 1 3 4 4
42 39 38 37 33 30 25 26 26 23 23 21 16 4 15 29 9 4 6 8 9 9 9 7 3 4 5 3 6 7 9 1 10 13 8 2 4 2 6 5 4 3 4 5 5 6 4
37 38 37 41 38 33 29 26 27 26 26 26 9 10 19 28 7 7 4 13 5 3 12 4 4 6 6 3 3 2 4 5 7 4 8 6 1 2 7 5 3 4 0 2 3 2 7
40 38 37 35 34 32 31 28 25 23 30 30 12 3 7 13 16 16 10 11 13 12 12 6 3 5 3 4 3 2 2 4 5 5 8 7 4 6 7 4 3 3 5 5 3 2 3
40 41 40 38 36 35 35 33 30 27 31 33 14 6 11 8 10 16 11 6 15 12 14 7 6 9 6 3 5 3 2 2 6 5 4 5 5 3 3 4 4 5 11 13 8 12 6
39 40 40 40 38 36 35 36 35 33 33 35 12 6 10 7 22 16 13 14 15 14 8 7 13 8 8 7 10 8 9 4 5 1 3 1 2 3 4 7 8 12 17 15 16 11 6
41 42 41 40 39 37 38 40 39 38 40 23 33 13 21 12 12 12 18 26 16 6 10 25 9 5 9 9 8 12 10 15 11 8 5 5 4 3 4 4 7 8 10 11 4 7 7
46 45 45 43 42 42 40 39 38 41 47 36 33 18 7 4 12 20 23 22 14 13 10 6 20 7 9 25 22 14 14 9 15 5 10 6 5 3 3 3 4 6 3 4 6 2 4
52 52 51 48 46 44 44 42 40 45 47 48 37 26 11 3 16 12 15 16 18 20 5 9 6 12 28 9 4 4 4 3 3 6 6 6 4 2 2 3 6 3 3 4 4 4 8
55 54 53 50 49 49 47 44 41 45 48 49 43 33 15 5 11 20 14 14 9 10 4 2 4 23 14 3 3 5 4 4 4 2 7 6 4 4 3 3 4 4 2 6 2 5 13
61 61 58 56 53 50 49 46 44 44 48 50 45 53 15 5 11 27 9 15 14 10 4 5 10 4 3 3 3 3 4 7 5 6 5 4 2 10 6 4 6 3 7 7 4 4 19
67 69 62 59 59 55 50 49 45 42 47 50 49 42 42 4 9 14 18 11 17 22 5 13 7 3 4 3 4 4 3 5 3 4 6 8 7 4 4 4 10 6 6 6 3 10 23
60 59 62 66 62 59 55 52 48 46 47 49 37 37 34 23 9 7 9 16 16 29 23 27 8 9 8 3 4 3 2 2 5 4 3 5 6 4 7 5 1 3 3 5 7 19 21

GFSGBSN_850_spd_129.txt.gz
Wind_Speed
34 30 29 29 29 29 28 26 26 25 25 25 23 22 21 21 19 18 16 17 15 16 16 18 17 19 17 11 9 9 9 10 7 2 4 4 8 8 4 6 9 3 4 16 16 21 16
27 30 30 30 26 26 26 27 28 27 25 25 27 26 24 23 20 19 15 16 14 15 15 17 17 18 17 8 7 9 11 8 6 3 1 4 6 8 4 3 1 8 10 18 16 20 17
37 34 33 32 32 30 31 28 28 24 21 21 23 28 28 26 20 16 13 12 14 17 14 14 18 20 20 20 12 10 10 5 8 7 4 3 4 4 8 5 7 7 7 9 9 8 4
31 30 31 33 34 36 36 32 30 32 31 25 25 28 21 20 16 12 12 15 17 19 16 15 17 19 14 13 15 18 14 3 7 7 9 5 5 6 3 6 9 5 3 3 5 7 3
23 25 24 18 23 26 26 27 33 30 31 31 26 29 25 19 20 15 17 17 22 18 16 15 15 13 13 11 13 7 9 3 5 4 2 2 3 2 1 4 5 4 3 3 8 6 4
21 20 19 17 18 21 22 22 21 22 25 25 25 27 27 29 22 19 21 17 19 20 15 12 15 9 14 10 6 6 7 5 4 3 3 4 2 1 3 4 4 3 2 3 4 7 5
20 17 18 17 17 19 22 21 21 20 20 20 22 24 27 25 26 24 24 17 10 7 15 11 4 7 2 4 11 10 10 7 7 2 3 2 3 8 9 7 4 3 4 6 7 12 5
22 19 19 21 18 16 15 19 20 19 18 18 18 19 21 20 20 21 17 18 7 5 9 15 22 33 30 19 9 17 12 7 8 6 3 2 7 11 6 5 6 6 6 9 7 9 4
24 22 21 21 22 19 14 12 16 16 14 15 16 15 15 19 18 18 22 18 9 5 5 13 25 27 34 31 26 31 18 14 6 7 7 7 7 4 6 5 6 6 5 5 8 3 4
28 26 24 24 23 18 19 15 15 12 13 16 14 13 17 15 15 19 20 16 8 1 3 6 5 10 18 13 8 24 31 18 6 10 6 6 12 11 7 8 6 6 5 4 1 3 3
31 29 28 27 24 21 20 19 17 15 12 13 14 16 18 19 10 22 17 18 11 5 3 3 5 4 13 17 2 2 16 24 8 5 6 8 4 3 3 6 7 7 5 4 4 2 1
30 33 30 29 28 23 21 23 21 19 17 15 16 17 19 19 15 9 20 19 12 4 9 3 6 6 7 9 1 5 5 7 8 5 4 7 3 4 7 5 5 3 2 4 4 2 5
33 32 31 30 28 28 24 20 21 21 19 19 18 20 22 23 22 15 23 22 4 6 4 4 5 5 5 5 4 3 5 5 5 4 5 2 5 5 7 5 3 4 5 3 4 2 5
33 33 31 29 31 29 27 23 20 23 20 19 19 18 22 25 24 23 28 4 6 5 7 4 3 3 6 5 4 4 5 5 4 3 2 4 5 3 3 5 5 5 8 5 5 4 5
35 34 32 31 30 31 29 27 24 20 23 19 20 23 24 24 24 27 22 8 7 6 5 4 2 3 3 4 5 4 7 5 7 8 7 4 4 2 2 2 5 3 2 2 1 1 1
33 34 36 33 32 30 31 30 27 24 22 21 20 22 23 28 23 32 8 11 6 5 4 3 7 6 7 6 7 7 8 5 5 9 6 4 1 2 1 3 4 4 5 3 2 3 9
34 34 33 32 35 32 31 30 29 25 21 24 21 10 16 29 25 18 7 10 5 10 3 2 2 1 2 4 7 6 8 3 6 3 8 5 4 2 1 3 6 1 1 2 2 3 5
35 36 39 34 37 37 32 31 31 28 26 24 15 4 13 33 9 4 7 6 8 5 11 6 2 4 3 1 2 6 9 7 7 10 8 3 4 3 7 1 2 2 5 5 3 5 5
39 39 37 38 36 37 36 32 28 32 31 30 11 9 22 32 8 6 3 7 4 2 7 5 7 7 4 3 1 1 3 5 2 4 9 7 2 1 5 5 2 3 3 3 2 2 11
38 40 41 39 40 42 40 35 30 35 32 32 10 4 9 11 22 15 11 10 12 8 4 3 2 3 3 3 3 3 2 6 5 3 5 6 3 6 8 4 3 3 5 6 6 3 5
40 39 41 37 41 41 44 38 35 34 34 34 12 7 11 7 15 12 9 6 17 9 10 12 4 6 4 4 3 4 2 2 4 3 4 4 5 3 2 4 3 4 5 12 9 11 8
41 39 40 41 40 42 35 44 41 35 34 32 10 6 7 3 15 20 10 14 12 14 8 13 4 6 7 8 9 7 6 2 3 3 3 3 2 3 4 6 7 10 14 15 14 15 12
43 41 41 41 41 39 36 37 40 37 36 18 26 18 7 13 7 13 21 20 16 3 9 18 7 6 8 12 16 17 18 14 8 10 5 4 5 3 5 2 5 6 11 11 5 6 7
42 42 43 43 43 41 38 35 36 38 40 32 25 11 8 3 9 16 20 23 13 9 13 6 22 9 5 3 12 7 6 7 14 6 8 6 6 3 2 2 3 7 3 4 6 8 8
42 41 42 45 45 43 39 37 38 40 41 43 31 23 10 3 14 12 16 13 21 18 6 15 27 13 11 16 1 2 3 2 4 4 5 5 5 2 2 3 7 10 4 4 5 6 6
43 43 44 45 45 43 41 40 40 41 44 44 41 31 14 3 10 20 13 13 7 9 7 7 7 14 19 2 2 6 5 4 5 3 4 4 3 4 3 3 4 4 2 4 3 5 8
50 49 48 47 46 45 43 43 41 41 44 48 34 39 23 10 10 20 9 16 13 9 3 8 9 5 17 4 3 3 4 5 5 7 5 3 1 7 4 4 7 5 6 7 4 5 15
55 54 53 51 51 49 46 42 42 44 42 46 40 33 35 11 10 16 18 15 16 22 5 8 6 3 2 4 4 4 3 5 3 6 7 8 7 4 5 6 11 9 6 6 4 4 20
61 59 55 54 52 51 49 47 45 44 42 43 34 34 33 27 12 9 9 17 25 29 24 24 7 8 12 3 3 2 1 1 5 3 3 4 6 5 9 6 3 14 3 6 5 10 16

GFSGBSN_850_spd_132.txt.gz
Wind_Speed
33 33 34 32 31 30 28 28 27 26 25 23 23 23 23 21 20 18 17 17 18 19 18 19 19 18 16 9 9 8 6 8 6 3 4 3 7 3 2 2 5 2 3 11 14 16 13
31 35 35 34 33 31 30 31 29 29 27 25 24 25 23 25 24 20 19 19 19 17 17 16 17 16 14 7 8 8 7 6 4 3 1 3 5 3 1 2 1 4 6 15 10 15 8
33 29 29 29 29 27 29 31 31 30 29 28 26 24 18 22 24 23 20 19 17 16 18 17 17 18 18 21 15 14 9 6 6 5 1 2 1 2 4 3 4 4 5 7 4 1 1
27 34 39 37 34 34 32 31 29 28 28 25 24 23 20 19 21 23 19 13 14 17 18 18 17 16 13 15 16 12 13 10 5 6 4 2 2 3 1 3 5 3 4 3 4 6 4
24 21 23 32 30 30 31 36 31 34 33 31 32 31 24 22 18 17 14 16 16 18 17 17 17 11 14 12 15 12 13 12 3 1 2 2 1 1 1 4 5 5 2 2 6 6 3
22 22 22 20 17 17 19 20 26 26 32 34 35 30 27 24 21 20 18 18 19 15 18 17 21 9 15 10 2 3 10 10 4 3 2 4 0 3 3 4 4 2 1 0 2 4 7
22 20 20 16 17 17 19 20 21 21 21 22 21 24 24 24 27 26 13 12 13 9 14 11 5 7 4 4 6 5 8 9 6 2 3 3 3 7 8 5 2 2 1 3 5 9 1
23 22 20 18 20 19 18 18 20 21 20 20 20 20 21 23 23 22 19 11 9 4 9 14 21 29 29 23 9 9 10 7 6 5 4 5 6 9 5 3 4 3 2 6 6 6 6
26 25 23 21 21 23 20 15 14 17 18 15 15 17 15 15 14 16 19 18 13 8 7 15 25 26 32 27 25 34 13 10 5 5 6 7 5 6 5 4 4 3 4 4 7 3 3
28 26 25 24 23 22 23 19 15 13 12 13 14 13 13 14 15 19 21 16 13 5 3 6 5 8 15 13 8 28 27 19 4 10 8 6 9 6 3 5 6 3 6 7 5 1 3
33 31 29 27 26 25 23 21 19 14 11 11 11 14 16 18 8 21 12 17 10 5 3 3 4 4 7 14 3 3 14 25 9 6 6 6 3 3 3 5 7 7 2 1 1 1 2
33 33 31 29 29 27 25 21 24 19 15 12 12 14 19 22 16 8 19 23 12 4 8 3 6 4 5 8 1 7 6 8 10 4 2 5 2 4 6 4 3 4 3 5 4 2 4
31 34 33 32 31 29 26 23 21 24 20 16 15 16 21 22 21 12 22 24 4 5 3 2 4 5 3 5 2 3 6 6 6 5 4 1 6 3 4 3 1 4 5 3 3 1 5
36 35 34 34 32 31 30 27 24 23 22 19 19 18 21 23 22 17 27 3 5 5 6 3 3 3 5 4 4 2 5 4 1 5 3 4 3 5 3 6 6 5 7 5 5 3 5
44 37 35 34 34 31 29 26 27 21 22 21 20 21 24 28 27 23 23 8 7 6 5 4 4 3 4 3 4 3 5 6 8 8 7 5 4 1 3 4 5 4 3 4 2 1 1
44 42 37 35 34 31 29 28 28 24 20 23 21 21 25 30 27 31 10 10 5 3 2 1 7 5 7 5 5 5 5 4 5 10 6 5 1 1 1 4 4 4 5 3 2 2 5
40 38 39 36 35 32 30 30 29 29 23 24 20 9 20 27 25 16 9 11 5 8 2 2 1 2 3 5 6 5 6 3 4 4 5 5 4 2 1 4 7 2 1 3 3 3 3
37 39 37 33 33 35 32 32 31 30 26 25 16 4 17 34 9 3 6 6 3 2 10 3 1 1 3 3 4 6 8 4 6 7 8 5 4 4 6 0 1 1 5 5 4 5 4
30 32 34 31 33 32 34 35 33 32 33 31 9 11 23 33 9 12 5 9 4 2 4 5 4 4 2 3 0 3 3 3 5 2 7 7 2 1 5 4 2 3 4 3 4 3 13
30 32 32 33 31 34 34 34 37 36 36 33 7 4 7 21 19 6 13 13 12 11 4 4 2 3 2 2 3 3 3 4 3 3 6 5 3 6 8 5 4 3 4 5 5 3 12
34 34 35 34 35 35 35 40 37 39 40 38 13 5 9 6 15 14 7 5 14 9 9 12 2 4 5 5 3 4 2 2 3 3 4 3 1 1 2 1 1 4 5 7 9 17 9
39 38 37 36 35 36 36 38 37 42 42 34 12 4 4 5 15 16 10 15 9 13 7 5 3 8 6 6 6 5 4 3 4 2 3 2 3 3 5 4 5 7 3 10 16 14 15
39 40 38 38 38 38 38 34 42 45 48 21 25 22 4 9 7 12 20 17 14 7 3 7 5 3 5 6 8 12 13 7 7 8 4 4 4 2 5 3 5 8 8 12 4 6 6
41 39 40 40 41 40 40 41 43 50 53 33 38 18 6 2 8 16 18 18 6 15 9 2 19 6 2 4 1 4 3 1 7 4 7 6 6 3 2 1 5 6 4 5 8 7 9
40 42 41 41 41 42 41 41 39 52 53 32 35 21 11 2 12 3 11 12 21 12 3 14 19 5 6 2 4 4 4 4 2 4 5 3 4 2 2 2 7 6 3 5 5 6 4
40 41 40 40 42 42 40 39 40 46 49 42 21 38 9 5 6 14 6 9 6 10 4 6 3 10 10 3 2 5 5 4 4 0 4 5 4 3 3 3 5 6 3 7 5 5 5
42 41 40 40 41 42 39 38 37 37 42 39 38 25 17 3 5 11 5 10 13 9 3 6 14 6 17 3 3 4 4 5 6 7 5 3 1 7 3 5 6 7 7 8 5 6 8
44 44 42 40 40 40 41 39 37 37 39 38 31 30 27 10 4 4 13 6 16 20 4 7 8 4 3 5 4 4 4 5 3 5 7 7 7 3 4 5 8 9 7 6 4 1 7
49 46 44 41 41 39 43 39 39 38 40 39 26 26 25 17 6 11 12 13 14 22 27 21 7 9 12 4 3 3 1 1 4 3 2 3 7 6 9 7 1 22 5 14 6 4 8